GEFSSE_prec_meanprec_006.txt.gz
QPF
0.00 0.00 0.00 0.00 0.01 0.00 0.00 0.01 0.00 0.00 0.01 0.02 0.02 0.01 0.00 0.00 0.00 0.00 0.01 0.00 0.00 0.00 0.00 0.01 0.01 0.02 0.01 0.01 0.01 0.02 0.06 0.06 0.04 0.01 0.01 0.00 0.01 0.04 0.12 0.13 0.03 0.03 0.10
0.00 0.00 0.01 0.01 0.01 0.00 0.01 0.01 0.01 0.01 0.02 0.01 0.02 0.01 0.01 0.01 0.01 0.01 0.00 0.00 0.00 0.00 0.00 0.01 0.01 0.02 0.02 0.02 0.03 0.04 0.05 0.06 0.06 0.06 0.03 0.01 0.04 0.07 0.09 0.06 0.02 0.03 0.08
0.00 0.00 0.01 0.01 0.01 0.01 0.01 0.01 0.02 0.02 0.01 0.01 0.04 0.03 0.03 0.02 0.00 0.00 0.00 0.00 0.00 0.00 0.01 0.03 0.04 0.02 0.01 0.04 0.05 0.05 0.06 0.08 0.09 0.09 0.03 0.01 0.03 0.07 0.11 0.08 0.03 0.04 0.04
0.00 0.00 0.00 0.01 0.03 0.05 0.03 0.01 0.02 0.02 0.01 0.02 0.04 0.04 0.04 0.02 0.01 0.01 0.00 0.00 0.00 0.00 0.01 0.03 0.06 0.04 0.01 0.02 0.03 0.02 0.03 0.07 0.12 0.06 0.01 0.00 0.01 0.03 0.13 0.16 0.05 0.04 0.03
0.01 0.01 0.03 0.05 0.11 0.11 0.06 0.05 0.04 0.03 0.03 0.04 0.03 0.04 0.05 0.03 0.04 0.02 0.00 0.01 0.01 0.01 0.01 0.01 0.03 0.04 0.01 0.02 0.03 0.02 0.04 0.12 0.09 0.01 0.00 0.00 0.01 0.07 0.13 0.18 0.10 0.05 0.02
0.02 0.04 0.07 0.09 0.14 0.12 0.06 0.06 0.05 0.05 0.05 0.03 0.02 0.03 0.04 0.03 0.04 0.01 0.00 0.03 0.02 0.01 0.00 0.01 0.01 0.01 0.00 0.01 0.03 0.03 0.05 0.08 0.02 0.01 0.00 0.00 0.02 0.12 0.12 0.08 0.06 0.04 0.02
0.02 0.04 0.08 0.11 0.12 0.09 0.05 0.06 0.08 0.07 0.05 0.02 0.01 0.03 0.03 0.03 0.03 0.00 0.00 0.01 0.02 0.02 0.01 0.01 0.01 0.00 0.00 0.00 0.02 0.03 0.03 0.02 0.00 0.00 0.01 0.02 0.05 0.12 0.09 0.07 0.09 0.05 0.02
0.02 0.03 0.09 0.10 0.08 0.08 0.06 0.08 0.09 0.11 0.06 0.01 0.01 0.03 0.02 0.02 0.02 0.01 0.00 0.01 0.01 0.00 0.00 0.00 0.01 0.00 0.00 0.00 0.00 0.01 0.01 0.01 0.00 0.00 0.01 0.03 0.06 0.08 0.08 0.08 0.11 0.07 0.06
0.04 0.03 0.08 0.07 0.05 0.06 0.08 0.07 0.08 0.13 0.06 0.01 0.01 0.04 0.04 0.02 0.02 0.02 0.00 0.00 0.00 0.00 0.00 0.00 0.01 0.00 0.00 0.00 0.00 0.00 0.01 0.01 0.00 0.00 0.00 0.04 0.09 0.09 0.14 0.13 0.09 0.07 0.07
0.03 0.01 0.01 0.02 0.03 0.05 0.04 0.05 0.07 0.16 0.10 0.03 0.04 0.04 0.05 0.03 0.02 0.02 0.00 0.00 0.01 0.01 0.00 0.00 0.00 0.00 0.00 0.00 0.00 0.01 0.01 0.00 0.00 0.00 0.00 0.02 0.06 0.04 0.06 0.08 0.06 0.07 0.06
0.00 0.00 0.00 0.00 0.01 0.01 0.02 0.03 0.08 0.13 0.12 0.06 0.05 0.04 0.04 0.02 0.05 0.02 0.00 0.00 0.01 0.00 0.00 0.00 0.00 0.00 0.00 0.00 0.00 0.01 0.00 0.00 0.00 0.00 0.00 0.01 0.01 0.01 0.01 0.01 0.01 0.01 0.02
0.00 0.00 0.00 0.00 0.01 0.00 0.00 0.01 0.02 0.03 0.03 0.01 0.01 0.01 0.01 0.03 0.04 0.01 0.00 0.00 0.00 0.00 0.00 0.00 0.00 0.00 0.00 0.00 0.00 0.00 0.00 0.00 0.00 0.00 0.00 0.00 0.00 0.00 0.00 0.00 0.00 0.00 0.00
0.00 0.00 0.00 0.00 0.00 0.00 0.00 0.01 0.01 0.01 0.00 0.00 0.00 0.00 0.01 0.02 0.01 0.00 0.00 0.00 0.00 0.00 0.00 0.00 0.00 0.00 0.00 0.00 0.00 0.00 0.00 0.00 0.00 0.00 0.00 0.00 0.00 0.00 0.00 0.00 0.00 0.00 0.00
0.00 0.00 0.00 0.00 0.00 0.00 0.00 0.02 0.02 0.05 0.04 0.00 0.00 0.00 0.00 0.01 0.00 0.00 0.00 0.00 0.00 0.01 0.00 0.00 0.00 0.00 0.00 0.00 0.00 0.00 0.00 0.00 0.00 0.00 0.00 0.01 0.01 0.00 0.00 0.01 0.00 0.00 0.00
0.00 0.00 0.00 0.00 0.00 0.00 0.00 0.00 0.02 0.09 0.07 0.02 0.00 0.00 0.00 0.01 0.00 0.00 0.00 0.00 0.00 0.01 0.00 0.00 0.00 0.00 0.00 0.01 0.01 0.00 0.00 0.00 0.00 0.00 0.00 0.02 0.03 0.03 0.02 0.02 0.02 0.00 0.01
0.00 0.00 0.00 0.00 0.00 0.00 0.00 0.00 0.00 0.01 0.01 0.01 0.00 0.00 0.00 0.01 0.00 0.00 0.00 0.00 0.00 0.00 0.01 0.00 0.00 0.00 0.00 0.00 0.01 0.00 0.00 0.00 0.00 0.00 0.00 0.01 0.04 0.08 0.08 0.09 0.07 0.03 0.03
0.00 0.00 0.00 0.00 0.00 0.00 0.00 0.00 0.00 0.00 0.00 0.00 0.00 0.00 0.00 0.01 0.01 0.00 0.00 0.00 0.02 0.02 0.02 0.01 0.00 0.00 0.00 0.00 0.00 0.00 0.00 0.00 0.00 0.00 0.00 0.00 0.02 0.10 0.16 0.18 0.16 0.10 0.07
0.00 0.00 0.00 0.00 0.00 0.00 0.00 0.00 0.00 0.00 0.00 0.00 0.00 0.01 0.02 0.04 0.04 0.02 0.03 0.05 0.05 0.03 0.03 0.02 0.00 0.00 0.00 0.00 0.00 0.00 0.00 0.00 0.00 0.00 0.00 0.00 0.00 0.04 0.10 0.16 0.21 0.22 0.16
0.00 0.00 0.00 0.00 0.00 0.00 0.00 0.00 0.00 0.00 0.00 0.01 0.02 0.03 0.09 0.13 0.10 0.05 0.06 0.10 0.10 0.08 0.05 0.03 0.02 0.01 0.00 0.00 0.00 0.00 0.00 0.00 0.00 0.00 0.00 0.00 0.00 0.00 0.01 0.02 0.08 0.07 0.07
0.01 0.00 0.00 0.00 0.00 0.00 0.00 0.00 0.00 0.00 0.01 0.02 0.04 0.12 0.28 0.26 0.14 0.06 0.05 0.07 0.10 0.12 0.11 0.09 0.04 0.01 0.00 0.00 0.00 0.00 0.00 0.00 0.00 0.00 0.00 0.00 0.00 0.00 0.00 0.00 0.00 0.00 0.04
0.01 0.00 0.00 0.00 0.01 0.01 0.00 0.00 0.00 0.00 0.00 0.01 0.03 0.07 0.15 0.23 0.14 0.08 0.07 0.06 0.06 0.09 0.13 0.15 0.07 0.03 0.02 0.01 0.01 0.00 0.00 0.00 0.00 0.00 0.00 0.00 0.00 0.00 0.00 0.00 0.00 0.00 0.00
0.00 0.00 0.00 0.01 0.03 0.03 0.03 0.03 0.02 0.01 0.00 0.00 0.01 0.04 0.08 0.14 0.13 0.12 0.16 0.14 0.09 0.09 0.12 0.18 0.13 0.09 0.06 0.06 0.08 0.06 0.02 0.01 0.00 0.00 0.00 0.00 0.00 0.00 0.00 0.00 0.00 0.00 0.00
0.00 0.02 0.05 0.11 0.16 0.17 0.17 0.16 0.08 0.03 0.01 0.00 0.01 0.03 0.08 0.15 0.13 0.12 0.18 0.16 0.10 0.08 0.10 0.13 0.15 0.21 0.22 0.17 0.20 0.22 0.13 0.06 0.03 0.01 0.00 0.00 0.00 0.00 0.00 0.00 0.00 0.00 0.00
0.08 0.14 0.23 0.30 0.36 0.33 0.30 0.24 0.13 0.06 0.03 0.02 0.04 0.07 0.07 0.09 0.08 0.04 0.05 0.07 0.06 0.06 0.06 0.09 0.18 0.32 0.43 0.40 0.31 0.28 0.21 0.12 0.06 0.02 0.00 0.00 0.00 0.00 0.00 0.00 0.00 0.00 0.00
0.22 0.33 0.41 0.52 0.49 0.43 0.33 0.22 0.16 0.11 0.07 0.05 0.07 0.12 0.12 0.09 0.05 0.03 0.03 0.04 0.06 0.06 0.04 0.06 0.11 0.21 0.37 0.48 0.43 0.32 0.23 0.16 0.08 0.03 0.01 0.00 0.00 0.00 0.00 0.00 0.00 0.00 0.00
0.41 0.60 0.65 0.63 0.56 0.42 0.28 0.21 0.18 0.13 0.10 0.09 0.11 0.16 0.15 0.08 0.03 0.02 0.03 0.06 0.06 0.04 0.02 0.03 0.07 0.09 0.18 0.27 0.28 0.20 0.15 0.16 0.16 0.12 0.08 0.05 0.01 0.00 0.00 0.00 0.00 0.00 0.00

GEFSSE_prec_meanprec_012.txt.gz
QPF
0.00 0.00 0.01 0.01 0.00 0.00 0.00 0.00 0.01 0.01 0.01 0.01 0.01 0.00 0.00 0.00 0.00 0.00 0.00 0.00 0.00 0.00 0.01 0.02 0.04 0.03 0.04 0.08 0.14 0.17 0.15 0.12 0.10 0.09 0.08 0.08 0.10 0.06 0.04 0.03 0.06 0.12 0.05
0.00 0.00 0.01 0.01 0.00 0.00 0.00 0.00 0.00 0.01 0.01 0.00 0.00 0.00 0.00 0.00 0.00 0.00 0.00 0.00 0.00 0.00 0.01 0.03 0.04 0.04 0.04 0.06 0.11 0.17 0.18 0.17 0.15 0.13 0.12 0.14 0.13 0.08 0.05 0.05 0.06 0.09 0.03
0.00 0.00 0.01 0.01 0.01 0.00 0.00 0.01 0.01 0.01 0.01 0.00 0.00 0.00 0.00 0.00 0.00 0.00 0.00 0.00 0.00 0.00 0.00 0.01 0.04 0.05 0.05 0.07 0.11 0.16 0.18 0.19 0.20 0.14 0.11 0.15 0.12 0.11 0.10 0.10 0.09 0.06 0.05
0.00 0.00 0.00 0.01 0.01 0.02 0.01 0.01 0.02 0.02 0.01 0.01 0.01 0.00 0.00 0.00 0.00 0.00 0.00 0.00 0.00 0.00 0.01 0.01 0.02 0.07 0.09 0.08 0.10 0.13 0.13 0.15 0.16 0.06 0.03 0.08 0.12 0.12 0.13 0.12 0.11 0.07 0.06
0.00 0.00 0.00 0.01 0.02 0.04 0.03 0.03 0.06 0.03 0.02 0.02 0.01 0.01 0.01 0.00 0.00 0.00 0.00 0.00 0.00 0.01 0.01 0.01 0.01 0.06 0.11 0.11 0.10 0.10 0.09 0.13 0.10 0.02 0.01 0.02 0.06 0.11 0.12 0.13 0.11 0.07 0.06
0.00 0.00 0.01 0.03 0.05 0.07 0.05 0.05 0.11 0.05 0.03 0.03 0.01 0.01 0.02 0.01 0.00 0.00 0.00 0.01 0.00 0.00 0.01 0.01 0.01 0.05 0.09 0.13 0.11 0.12 0.14 0.07 0.02 0.01 0.01 0.01 0.04 0.08 0.10 0.12 0.11 0.08 0.06
0.00 0.00 0.01 0.05 0.06 0.07 0.07 0.09 0.13 0.07 0.07 0.04 0.02 0.02 0.03 0.02 0.01 0.00 0.01 0.01 0.00 0.00 0.00 0.00 0.00 0.02 0.04 0.06 0.07 0.08 0.10 0.04 0.02 0.03 0.02 0.03 0.05 0.06 0.07 0.10 0.13 0.10 0.04
0.00 0.00 0.00 0.02 0.03 0.06 0.10 0.12 0.14 0.13 0.10 0.04 0.02 0.02 0.02 0.01 0.00 0.01 0.01 0.01 0.01 0.01 0.00 0.00 0.00 0.00 0.00 0.01 0.02 0.05 0.06 0.03 0.01 0.02 0.02 0.06 0.06 0.06 0.06 0.07 0.08 0.10 0.08
0.00 0.00 0.00 0.01 0.02 0.06 0.10 0.11 0.16 0.19 0.12 0.04 0.01 0.01 0.01 0.01 0.01 0.00 0.01 0.01 0.00 0.00 0.00 0.00 0.00 0.00 0.00 0.00 0.02 0.03 0.05 0.02 0.00 0.01 0.01 0.05 0.04 0.04 0.06 0.06 0.07 0.10 0.12
0.00 0.00 0.00 0.01 0.02 0.04 0.08 0.12 0.16 0.28 0.23 0.04 0.01 0.01 0.01 0.01 0.01 0.00 0.00 0.00 0.00 0.00 0.00 0.00 0.00 0.00 0.00 0.01 0.03 0.04 0.03 0.01 0.00 0.00 0.00 0.02 0.03 0.03 0.04 0.05 0.05 0.05 0.08
0.00 0.00 0.00 0.00 0.01 0.02 0.06 0.13 0.18 0.24 0.25 0.08 0.02 0.01 0.01 0.01 0.01 0.00 0.00 0.00 0.00 0.00 0.00 0.00 0.00 0.00 0.00 0.01 0.02 0.01 0.00 0.00 0.00 0.00 0.00 0.00 0.00 0.01 0.02 0.02 0.01 0.02 0.03
0.00 0.00 0.00 0.00 0.00 0.00 0.01 0.07 0.13 0.12 0.15 0.08 0.05 0.03 0.01 0.00 0.00 0.00 0.00 0.00 0.00 0.00 0.00 0.00 0.00 0.00 0.00 0.00 0.00 0.00 0.00 0.00 0.00 0.00 0.00 0.00 0.00 0.00 0.00 0.00 0.00 0.00 0.00
0.00 0.00 0.00 0.00 0.00 0.00 0.02 0.04 0.07 0.09 0.10 0.09 0.05 0.03 0.02 0.00 0.00 0.00 0.00 0.01 0.01 0.00 0.00 0.00 0.00 0.00 0.00 0.00 0.00 0.00 0.00 0.00 0.00 0.00 0.00 0.00 0.00 0.00 0.00 0.00 0.00 0.00 0.00
0.00 0.00 0.00 0.00 0.00 0.00 0.02 0.04 0.07 0.10 0.10 0.07 0.03 0.00 0.00 0.00 0.00 0.00 0.00 0.00 0.00 0.00 0.00 0.00 0.00 0.00 0.00 0.00 0.00 0.00 0.00 0.00 0.00 0.00 0.01 0.01 0.01 0.01 0.01 0.00 0.00 0.00 0.00
0.00 0.00 0.00 0.00 0.00 0.00 0.01 0.02 0.05 0.13 0.16 0.15 0.07 0.01 0.00 0.00 0.00 0.00 0.00 0.00 0.00 0.00 0.00 0.00 0.00 0.00 0.00 0.00 0.00 0.00 0.00 0.00 0.00 0.00 0.01 0.01 0.01 0.01 0.01 0.01 0.01 0.00 0.00
0.00 0.00 0.00 0.00 0.00 0.00 0.00 0.01 0.04 0.06 0.10 0.15 0.09 0.01 0.00 0.00 0.00 0.00 0.00 0.00 0.00 0.00 0.00 0.00 0.00 0.00 0.00 0.00 0.00 0.00 0.00 0.00 0.00 0.00 0.01 0.01 0.01 0.01 0.01 0.01 0.02 0.02 0.01
0.00 0.00 0.00 0.00 0.00 0.00 0.00 0.00 0.02 0.04 0.07 0.10 0.08 0.02 0.00 0.01 0.01 0.00 0.00 0.00 0.00 0.00 0.00 0.00 0.00 0.00 0.00 0.01 0.00 0.00 0.00 0.00 0.00 0.00 0.00 0.01 0.01 0.00 0.01 0.03 0.07 0.08 0.05
0.00 0.00 0.00 0.00 0.00 0.00 0.00 0.00 0.00 0.01 0.04 0.09 0.11 0.04 0.02 0.02 0.02 0.01 0.00 0.00 0.00 0.00 0.00 0.00 0.00 0.00 0.00 0.00 0.00 0.00 0.00 0.00 0.00 0.00 0.00 0.00 0.00 0.00 0.01 0.04 0.09 0.14 0.13
0.01 0.00 0.00 0.00 0.00 0.00 0.00 0.00 0.00 0.01 0.04 0.07 0.08 0.05 0.07 0.10 0.09 0.07 0.06 0.03 0.00 0.00 0.00 0.00 0.00 0.00 0.00 0.00 0.00 0.00 0.00 0.00 0.00 0.00 0.00 0.00 0.00 0.00 0.00 0.01 0.03 0.07 0.13
0.05 0.02 0.00 0.00 0.00 0.01 0.01 0.02 0.01 0.01 0.02 0.04 0.04 0.07 0.19 0.29 0.27 0.25 0.24 0.15 0.06 0.03 0.04 0.04 0.03 0.02 0.01 0.01 0.00 0.00 0.00 0.00 0.00 0.00 0.00 0.00 0.00 0.00 0.00 0.00 0.00 0.01 0.04
0.07 0.03 0.00 0.00 0.00 0.01 0.02 0.03 0.02 0.03 0.03 0.04 0.05 0.07 0.16 0.22 0.27 0.31 0.34 0.29 0.18 0.12 0.10 0.10 0.09 0.06 0.03 0.01 0.00 0.00 0.00 0.00 0.00 0.00 0.00 0.00 0.00 0.00 0.00 0.00 0.00 0.01 0.01
0.02 0.02 0.01 0.00 0.01 0.05 0.09 0.11 0.14 0.13 0.09 0.07 0.07 0.09 0.13 0.13 0.15 0.14 0.22 0.26 0.20 0.15 0.13 0.12 0.11 0.10 0.07 0.02 0.01 0.04 0.02 0.01 0.00 0.00 0.00 0.00 0.00 0.00 0.00 0.00 0.00 0.00 0.00
0.01 0.01 0.02 0.02 0.05 0.15 0.25 0.29 0.28 0.24 0.21 0.17 0.13 0.14 0.16 0.14 0.11 0.09 0.12 0.16 0.13 0.12 0.15 0.16 0.13 0.12 0.11 0.06 0.03 0.08 0.08 0.07 0.07 0.02 0.00 0.00 0.00 0.00 0.00 0.00 0.00 0.00 0.00
0.00 0.00 0.01 0.04 0.12 0.25 0.37 0.35 0.31 0.30 0.27 0.23 0.20 0.17 0.17 0.14 0.11 0.10 0.08 0.07 0.05 0.05 0.07 0.06 0.04 0.06 0.09 0.08 0.06 0.07 0.08 0.09 0.09 0.07 0.02 0.00 0.00 0.00 0.00 0.00 0.00 0.00 0.00
0.01 0.02 0.04 0.12 0.26 0.40 0.45 0.40 0.36 0.29 0.25 0.21 0.17 0.16 0.16 0.14 0.13 0.11 0.08 0.06 0.04 0.03 0.02 0.02 0.03 0.05 0.06 0.08 0.09 0.10 0.09 0.08 0.06 0.06 0.05 0.02 0.00 0.00 0.00 0.00 0.00 0.00 0.00
0.07 0.09 0.14 0.23 0.35 0.42 0.44 0.38 0.34 0.35 0.31 0.23 0.19 0.16 0.12 0.08 0.09 0.10 0.08 0.05 0.04 0.03 0.03 0.02 0.04 0.05 0.04 0.04 0.07 0.08 0.09 0.08 0.07 0.06 0.05 0.04 0.03 0.01 0.00 0.00 0.00 0.00 0.00

GEFSSE_prec_meanprec_018.txt.gz
QPF
0.00 0.00 0.00 0.00 0.00 0.00 0.00 0.01 0.01 0.01 0.01 0.01 0.01 0.01 0.02 0.01 0.01 0.01 0.02 0.02 0.03 0.04 0.05 0.05 0.06 0.09 0.10 0.11 0.13 0.12 0.10 0.11 0.09 0.06 0.05 0.05 0.04 0.02 0.02 0.06 0.16 0.22 0.08
0.00 0.00 0.00 0.00 0.00 0.00 0.00 0.00 0.01 0.00 0.00 0.01 0.01 0.01 0.01 0.01 0.01 0.01 0.01 0.01 0.01 0.02 0.04 0.05 0.06 0.06 0.08 0.09 0.10 0.09 0.07 0.07 0.08 0.07 0.07 0.07 0.05 0.03 0.03 0.06 0.15 0.20 0.11
0.00 0.00 0.00 0.00 0.00 0.00 0.00 0.00 0.01 0.01 0.00 0.00 0.01 0.01 0.00 0.00 0.00 0.01 0.01 0.01 0.01 0.01 0.01 0.03 0.04 0.05 0.08 0.09 0.07 0.05 0.06 0.05 0.06 0.06 0.14 0.23 0.11 0.05 0.03 0.04 0.06 0.09 0.11
0.00 0.00 0.00 0.00 0.00 0.00 0.00 0.00 0.01 0.01 0.00 0.00 0.01 0.01 0.00 0.00 0.00 0.00 0.00 0.01 0.01 0.01 0.01 0.01 0.03 0.03 0.06 0.07 0.05 0.05 0.05 0.04 0.04 0.06 0.13 0.27 0.22 0.06 0.03 0.02 0.03 0.06 0.09
0.00 0.00 0.01 0.00 0.00 0.01 0.01 0.01 0.01 0.01 0.01 0.01 0.00 0.00 0.00 0.00 0.00 0.00 0.00 0.01 0.01 0.02 0.01 0.01 0.02 0.02 0.03 0.04 0.03 0.03 0.04 0.03 0.02 0.06 0.13 0.20 0.18 0.07 0.03 0.03 0.03 0.05 0.05
0.00 0.00 0.00 0.00 0.01 0.02 0.02 0.02 0.03 0.03 0.02 0.01 0.00 0.00 0.00 0.00 0.00 0.00 0.00 0.00 0.01 0.01 0.01 0.01 0.01 0.02 0.03 0.03 0.04 0.04 0.03 0.03 0.06 0.12 0.17 0.23 0.21 0.07 0.03 0.02 0.03 0.05 0.06
0.00 0.00 0.00 0.00 0.01 0.03 0.03 0.05 0.07 0.08 0.04 0.02 0.01 0.00 0.00 0.00 0.00 0.01 0.02 0.01 0.00 0.00 0.00 0.01 0.01 0.02 0.03 0.03 0.04 0.04 0.03 0.05 0.14 0.15 0.16 0.24 0.21 0.06 0.03 0.02 0.03 0.05 0.09
0.00 0.00 0.00 0.00 0.01 0.02 0.04 0.05 0.09 0.08 0.05 0.03 0.01 0.01 0.01 0.00 0.00 0.01 0.02 0.02 0.01 0.00 0.00 0.00 0.00 0.00 0.01 0.01 0.02 0.03 0.01 0.04 0.10 0.08 0.10 0.17 0.10 0.04 0.02 0.02 0.03 0.04 0.08
0.00 0.00 0.00 0.00 0.00 0.01 0.02 0.03 0.07 0.10 0.08 0.05 0.02 0.01 0.01 0.01 0.00 0.00 0.01 0.01 0.00 0.00 0.00 0.00 0.00 0.00 0.00 0.00 0.01 0.01 0.01 0.02 0.02 0.03 0.05 0.08 0.03 0.02 0.02 0.02 0.03 0.06 0.08
0.00 0.00 0.00 0.00 0.01 0.02 0.02 0.02 0.04 0.09 0.11 0.05 0.02 0.01 0.01 0.00 0.00 0.00 0.00 0.00 0.00 0.00 0.00 0.00 0.00 0.00 0.00 0.00 0.00 0.00 0.00 0.00 0.00 0.01 0.02 0.03 0.01 0.01 0.02 0.03 0.05 0.06 0.08
0.00 0.00 0.00 0.01 0.01 0.02 0.03 0.03 0.02 0.05 0.09 0.05 0.01 0.01 0.00 0.02 0.02 0.01 0.00 0.00 0.00 0.00 0.00 0.00 0.00 0.00 0.00 0.00 0.00 0.00 0.00 0.00 0.00 0.00 0.01 0.00 0.00 0.01 0.01 0.01 0.02 0.03 0.05
0.00 0.00 0.00 0.00 0.00 0.01 0.03 0.08 0.03 0.04 0.05 0.04 0.07 0.02 0.04 0.13 0.10 0.03 0.00 0.00 0.00 0.00 0.00 0.00 0.00 0.00 0.00 0.00 0.00 0.00 0.00 0.00 0.00 0.00 0.00 0.00 0.00 0.00 0.00 0.00 0.00 0.00 0.01
0.00 0.00 0.00 0.00 0.00 0.01 0.05 0.08 0.08 0.13 0.17 0.20 0.17 0.06 0.07 0.12 0.05 0.00 0.00 0.00 0.00 0.00 0.00 0.00 0.00 0.00 0.00 0.00 0.00 0.00 0.00 0.00 0.00 0.00 0.01 0.00 0.00 0.00 0.00 0.00 0.00 0.00 0.00
0.00 0.00 0.00 0.00 0.00 0.00 0.02 0.05 0.06 0.09 0.18 0.21 0.12 0.04 0.02 0.04 0.02 0.00 0.00 0.00 0.00 0.00 0.00 0.00 0.00 0.00 0.00 0.00 0.00 0.00 0.00 0.00 0.00 0.00 0.01 0.00 0.00 0.00 0.00 0.00 0.00 0.00 0.00
0.00 0.00 0.00 0.00 0.00 0.00 0.01 0.03 0.02 0.04 0.09 0.14 0.15 0.04 0.02 0.01 0.01 0.00 0.00 0.00 0.00 0.00 0.00 0.00 0.00 0.00 0.00 0.00 0.00 0.00 0.00 0.00 0.00 0.00 0.02 0.00 0.00 0.00 0.00 0.00 0.01 0.00 0.00
0.00 0.00 0.00 0.00 0.00 0.00 0.00 0.01 0.02 0.02 0.03 0.06 0.06 0.01 0.02 0.01 0.00 0.00 0.00 0.00 0.00 0.00 0.00 0.00 0.00 0.00 0.00 0.00 0.00 0.00 0.00 0.00 0.00 0.00 0.02 0.01 0.00 0.00 0.00 0.00 0.01 0.01 0.00
0.01 0.00 0.00 0.00 0.00 0.00 0.00 0.00 0.01 0.01 0.01 0.01 0.02 0.01 0.01 0.01 0.00 0.00 0.00 0.00 0.00 0.00 0.00 0.00 0.00 0.00 0.00 0.00 0.00 0.00 0.00 0.00 0.00 0.00 0.00 0.01 0.01 0.00 0.00 0.00 0.00 0.00 0.01
0.04 0.02 0.01 0.00 0.00 0.00 0.00 0.00 0.00 0.00 0.02 0.02 0.04 0.01 0.01 0.00 0.00 0.00 0.00 0.00 0.00 0.00 0.00 0.00 0.00 0.00 0.00 0.00 0.00 0.00 0.00 0.00 0.00 0.00 0.00 0.00 0.00 0.01 0.01 0.00 0.00 0.00 0.01
0.08 0.06 0.04 0.02 0.00 0.00 0.00 0.00 0.00 0.00 0.02 0.02 0.02 0.01 0.00 0.01 0.00 0.01 0.00 0.00 0.00 0.00 0.00 0.00 0.00 0.00 0.00 0.00 0.00 0.00 0.00 0.00 0.00 0.00 0.00 0.00 0.00 0.00 0.00 0.00 0.00 0.00 0.01
0.09 0.08 0.06 0.05 0.03 0.01 0.01 0.01 0.02 0.02 0.02 0.01 0.02 0.02 0.00 0.01 0.01 0.02 0.01 0.00 0.00 0.00 0.01 0.01 0.01 0.01 0.01 0.00 0.00 0.00 0.00 0.00 0.00 0.00 0.00 0.00 0.00 0.00 0.00 0.00 0.02 0.01 0.00
0.02 0.03 0.04 0.05 0.05 0.03 0.02 0.01 0.04 0.04 0.03 0.03 0.04 0.02 0.02 0.01 0.01 0.03 0.02 0.02 0.02 0.02 0.01 0.02 0.09 0.10 0.06 0.01 0.03 0.03 0.01 0.00 0.00 0.00 0.00 0.00 0.00 0.00 0.00 0.00 0.02 0.02 0.01
0.00 0.01 0.01 0.02 0.03 0.04 0.04 0.04 0.06 0.07 0.07 0.07 0.06 0.05 0.05 0.02 0.02 0.03 0.04 0.06 0.06 0.10 0.10 0.12 0.17 0.16 0.11 0.04 0.07 0.14 0.11 0.07 0.02 0.00 0.00 0.00 0.00 0.00 0.00 0.00 0.00 0.00 0.01
0.01 0.01 0.01 0.01 0.02 0.03 0.07 0.21 0.38 0.45 0.36 0.25 0.16 0.13 0.10 0.06 0.05 0.05 0.09 0.14 0.13 0.17 0.18 0.16 0.13 0.13 0.10 0.06 0.05 0.14 0.14 0.15 0.13 0.03 0.00 0.00 0.00 0.00 0.00 0.00 0.00 0.00 0.00
0.01 0.01 0.01 0.01 0.02 0.03 0.11 0.32 0.56 0.64 0.55 0.44 0.33 0.23 0.16 0.10 0.08 0.10 0.11 0.11 0.13 0.17 0.13 0.07 0.06 0.09 0.12 0.09 0.10 0.08 0.05 0.06 0.11 0.09 0.04 0.00 0.00 0.00 0.00 0.00 0.00 0.00 0.00
0.01 0.01 0.02 0.03 0.04 0.05 0.12 0.31 0.52 0.64 0.64 0.60 0.49 0.38 0.28 0.18 0.13 0.13 0.13 0.14 0.14 0.15 0.12 0.11 0.15 0.18 0.13 0.13 0.13 0.09 0.05 0.05 0.05 0.11 0.11 0.07 0.02 0.00 0.00 0.00 0.00 0.00 0.00
0.01 0.02 0.03 0.06 0.06 0.08 0.15 0.26 0.40 0.52 0.59 0.64 0.61 0.49 0.34 0.23 0.18 0.19 0.21 0.20 0.14 0.12 0.11 0.14 0.17 0.16 0.13 0.12 0.09 0.07 0.07 0.05 0.08 0.12 0.11 0.15 0.12 0.02 0.00 0.00 0.00 0.00 0.00

GEFSSE_prec_meanprec_024.txt.gz
QPF
0.00 0.00 0.00 0.00 0.00 0.00 0.00 0.00 0.00 0.00 0.00 0.00 0.00 0.01 0.01 0.00 0.00 0.00 0.00 0.00 0.01 0.01 0.02 0.03 0.02 0.02 0.01 0.01 0.01 0.01 0.02 0.04 0.05 0.05 0.05 0.05 0.05 0.05 0.04 0.02 0.01 0.01 0.02
0.00 0.00 0.00 0.00 0.00 0.00 0.00 0.00 0.00 0.00 0.00 0.00 0.01 0.01 0.00 0.00 0.00 0.00 0.00 0.00 0.00 0.01 0.01 0.02 0.02 0.02 0.02 0.01 0.02 0.02 0.03 0.04 0.04 0.05 0.06 0.05 0.05 0.05 0.05 0.03 0.02 0.02 0.03
0.00 0.00 0.00 0.00 0.00 0.00 0.00 0.00 0.00 0.00 0.01 0.00 0.00 0.00 0.00 0.00 0.00 0.00 0.01 0.01 0.01 0.00 0.00 0.01 0.01 0.02 0.02 0.02 0.03 0.02 0.03 0.03 0.04 0.05 0.06 0.05 0.05 0.06 0.05 0.04 0.03 0.03 0.02
0.00 0.00 0.00 0.00 0.00 0.00 0.00 0.00 0.00 0.00 0.00 0.00 0.00 0.00 0.00 0.00 0.00 0.00 0.00 0.01 0.01 0.01 0.01 0.01 0.01 0.01 0.02 0.02 0.03 0.02 0.02 0.03 0.04 0.06 0.10 0.13 0.07 0.07 0.07 0.05 0.03 0.02 0.02
0.00 0.00 0.00 0.00 0.00 0.00 0.00 0.00 0.00 0.00 0.01 0.00 0.00 0.00 0.00 0.00 0.00 0.00 0.00 0.00 0.01 0.01 0.01 0.00 0.01 0.01 0.01 0.02 0.02 0.02 0.02 0.02 0.04 0.08 0.12 0.12 0.07 0.06 0.07 0.06 0.04 0.03 0.03
0.00 0.00 0.00 0.00 0.00 0.00 0.00 0.00 0.00 0.00 0.01 0.01 0.00 0.00 0.00 0.00 0.00 0.00 0.00 0.00 0.00 0.00 0.01 0.00 0.00 0.01 0.02 0.02 0.02 0.02 0.01 0.01 0.02 0.05 0.07 0.11 0.05 0.05 0.05 0.05 0.04 0.03 0.02
0.00 0.00 0.00 0.00 0.00 0.00 0.00 0.00 0.00 0.01 0.01 0.01 0.00 0.00 0.00 0.00 0.00 0.00 0.00 0.00 0.00 0.00 0.00 0.00 0.00 0.01 0.02 0.02 0.02 0.02 0.01 0.02 0.02 0.04 0.04 0.06 0.03 0.05 0.05 0.04 0.03 0.02 0.01
0.00 0.00 0.00 0.00 0.00 0.00 0.00 0.00 0.01 0.01 0.01 0.01 0.00 0.00 0.00 0.00 0.00 0.00 0.00 0.00 0.00 0.00 0.00 0.00 0.00 0.00 0.00 0.01 0.01 0.01 0.01 0.04 0.05 0.03 0.02 0.02 0.04 0.04 0.03 0.02 0.02 0.01 0.02
0.00 0.00 0.00 0.00 0.00 0.00 0.00 0.00 0.01 0.02 0.02 0.01 0.01 0.00 0.00 0.00 0.00 0.01 0.00 0.00 0.00 0.00 0.00 0.00 0.00 0.00 0.00 0.00 0.00 0.01 0.02 0.04 0.04 0.02 0.01 0.02 0.04 0.03 0.02 0.01 0.01 0.01 0.01
0.00 0.00 0.00 0.00 0.00 0.01 0.01 0.01 0.02 0.02 0.02 0.03 0.02 0.01 0.00 0.00 0.00 0.00 0.00 0.00 0.00 0.00 0.00 0.00 0.00 0.00 0.00 0.00 0.00 0.01 0.01 0.02 0.01 0.01 0.01 0.02 0.03 0.02 0.01 0.01 0.01 0.01 0.01
0.00 0.00 0.00 0.00 0.00 0.00 0.00 0.01 0.02 0.03 0.03 0.03 0.02 0.01 0.00 0.00 0.00 0.00 0.00 0.00 0.00 0.00 0.00 0.00 0.00 0.00 0.00 0.00 0.00 0.00 0.01 0.01 0.01 0.01 0.00 0.02 0.02 0.01 0.00 0.00 0.00 0.00 0.00
0.00 0.00 0.00 0.00 0.01 0.00 0.00 0.01 0.01 0.01 0.01 0.01 0.00 0.00 0.00 0.00 0.01 0.00 0.00 0.00 0.00 0.00 0.00 0.00 0.00 0.00 0.00 0.00 0.00 0.00 0.00 0.00 0.01 0.02 0.01 0.01 0.00 0.00 0.00 0.00 0.00 0.00 0.00
0.00 0.00 0.00 0.00 0.00 0.00 0.00 0.00 0.01 0.00 0.00 0.01 0.00 0.00 0.01 0.02 0.01 0.00 0.00 0.00 0.00 0.00 0.00 0.00 0.00 0.00 0.00 0.00 0.00 0.00 0.00 0.00 0.02 0.01 0.01 0.00 0.00 0.00 0.00 0.00 0.00 0.00 0.00
0.00 0.00 0.00 0.00 0.00 0.00 0.00 0.00 0.00 0.00 0.00 0.00 0.00 0.01 0.02 0.02 0.01 0.00 0.00 0.00 0.00 0.00 0.00 0.00 0.00 0.00 0.00 0.00 0.00 0.00 0.00 0.00 0.00 0.00 0.00 0.00 0.00 0.00 0.00 0.00 0.00 0.00 0.00
0.01 0.00 0.00 0.00 0.00 0.00 0.00 0.00 0.00 0.00 0.00 0.00 0.00 0.01 0.04 0.03 0.02 0.01 0.00 0.00 0.00 0.00 0.00 0.00 0.00 0.00 0.00 0.00 0.00 0.00 0.00 0.00 0.00 0.00 0.00 0.00 0.00 0.00 0.00 0.00 0.00 0.00 0.00
0.03 0.02 0.01 0.01 0.01 0.00 0.00 0.00 0.00 0.00 0.00 0.00 0.00 0.01 0.05 0.06 0.02 0.01 0.00 0.00 0.00 0.00 0.00 0.00 0.00 0.00 0.00 0.00 0.00 0.00 0.00 0.00 0.00 0.00 0.00 0.00 0.00 0.00 0.00 0.00 0.00 0.00 0.00
0.08 0.06 0.05 0.05 0.04 0.02 0.01 0.00 0.00 0.00 0.00 0.00 0.00 0.00 0.03 0.05 0.03 0.02 0.01 0.00 0.00 0.00 0.00 0.00 0.00 0.00 0.00 0.00 0.00 0.00 0.00 0.00 0.00 0.00 0.00 0.00 0.00 0.00 0.00 0.00 0.00 0.00 0.00
0.11 0.10 0.10 0.10 0.08 0.06 0.04 0.03 0.01 0.00 0.00 0.00 0.00 0.00 0.01 0.03 0.04 0.03 0.01 0.01 0.00 0.00 0.00 0.00 0.00 0.00 0.00 0.00 0.00 0.00 0.00 0.00 0.00 0.00 0.00 0.00 0.00 0.00 0.00 0.00 0.00 0.00 0.00
0.14 0.13 0.12 0.12 0.10 0.09 0.09 0.09 0.06 0.03 0.02 0.01 0.01 0.01 0.01 0.03 0.05 0.04 0.02 0.01 0.01 0.00 0.00 0.00 0.00 0.00 0.00 0.00 0.00 0.00 0.00 0.00 0.00 0.00 0.00 0.00 0.00 0.00 0.00 0.00 0.00 0.00 0.00
0.10 0.13 0.14 0.15 0.14 0.11 0.11 0.15 0.16 0.12 0.08 0.05 0.04 0.03 0.03 0.04 0.06 0.07 0.05 0.02 0.01 0.00 0.00 0.00 0.00 0.00 0.00 0.00 0.00 0.00 0.00 0.00 0.00 0.00 0.00 0.00 0.00 0.00 0.00 0.00 0.00 0.00 0.00
0.04 0.07 0.11 0.15 0.17 0.15 0.11 0.14 0.19 0.19 0.18 0.17 0.14 0.10 0.08 0.07 0.07 0.09 0.09 0.05 0.02 0.01 0.00 0.01 0.01 0.01 0.01 0.01 0.01 0.01 0.00 0.00 0.00 0.00 0.00 0.00 0.00 0.00 0.00 0.00 0.00 0.00 0.00
0.02 0.03 0.07 0.11 0.14 0.14 0.12 0.13 0.22 0.34 0.42 0.43 0.38 0.29 0.22 0.15 0.13 0.12 0.13 0.11 0.07 0.04 0.03 0.04 0.04 0.06 0.05 0.04 0.04 0.03 0.01 0.00 0.00 0.00 0.00 0.00 0.00 0.00 0.00 0.00 0.00 0.00 0.00
0.00 0.01 0.02 0.04 0.08 0.11 0.11 0.14 0.28 0.53 0.73 0.73 0.63 0.55 0.46 0.36 0.29 0.23 0.21 0.20 0.15 0.11 0.09 0.07 0.07 0.10 0.11 0.09 0.07 0.07 0.03 0.01 0.00 0.00 0.00 0.00 0.00 0.00 0.00 0.00 0.00 0.00 0.00
0.00 0.00 0.01 0.01 0.03 0.06 0.08 0.15 0.29 0.50 0.79 0.94 1.00 0.98 0.90 0.76 0.55 0.39 0.32 0.27 0.26 0.22 0.20 0.15 0.12 0.13 0.13 0.12 0.09 0.06 0.07 0.05 0.02 0.00 0.00 0.00 0.00 0.00 0.00 0.00 0.00 0.00 0.00
0.00 0.00 0.00 0.00 0.01 0.02 0.04 0.09 0.19 0.30 0.44 0.65 0.88 0.95 0.96 0.88 0.73 0.52 0.37 0.28 0.26 0.24 0.23 0.22 0.20 0.20 0.21 0.20 0.17 0.11 0.08 0.08 0.06 0.02 0.00 0.00 0.00 0.00 0.00 0.00 0.00 0.00 0.00
0.00 0.00 0.00 0.00 0.00 0.00 0.02 0.04 0.10 0.18 0.27 0.39 0.54 0.65 0.76 0.79 0.77 0.64 0.46 0.32 0.24 0.20 0.19 0.21 0.26 0.26 0.26 0.25 0.22 0.15 0.10 0.06 0.04 0.03 0.01 0.00 0.00 0.00 0.00 0.00 0.00 0.00 0.00

GEFSSE_prec_meanprec_030.txt.gz
QPF
0.00 0.00 0.03 0.02 0.01 0.01 0.00 0.00 0.00 0.00 0.00 0.00 0.00 0.00 0.00 0.00 0.01 0.02 0.03 0.03 0.04 0.05 0.05 0.05 0.05 0.04 0.03 0.02 0.01 0.01 0.01 0.01 0.01 0.01 0.01 0.01 0.01 0.02 0.04 0.03 0.01 0.01 0.02
0.00 0.00 0.02 0.02 0.01 0.01 0.00 0.00 0.00 0.00 0.00 0.00 0.00 0.00 0.00 0.00 0.00 0.01 0.02 0.02 0.02 0.03 0.04 0.04 0.05 0.04 0.03 0.02 0.01 0.02 0.02 0.02 0.02 0.01 0.00 0.00 0.00 0.01 0.02 0.02 0.01 0.02 0.03
0.00 0.00 0.01 0.01 0.01 0.00 0.00 0.00 0.00 0.00 0.00 0.00 0.00 0.00 0.00 0.00 0.00 0.00 0.00 0.00 0.00 0.01 0.02 0.03 0.04 0.03 0.02 0.02 0.02 0.01 0.02 0.03 0.02 0.01 0.00 0.00 0.00 0.01 0.02 0.02 0.02 0.03 0.03
0.00 0.00 0.00 0.01 0.01 0.01 0.00 0.00 0.00 0.00 0.00 0.00 0.00 0.00 0.00 0.00 0.00 0.00 0.00 0.00 0.00 0.00 0.00 0.01 0.03 0.03 0.03 0.02 0.02 0.01 0.02 0.03 0.03 0.01 0.00 0.00 0.00 0.01 0.01 0.02 0.02 0.01 0.02
0.00 0.00 0.00 0.01 0.01 0.01 0.01 0.01 0.00 0.00 0.00 0.00 0.00 0.00 0.00 0.00 0.00 0.00 0.00 0.00 0.00 0.00 0.00 0.01 0.02 0.02 0.02 0.02 0.02 0.01 0.02 0.03 0.02 0.00 0.00 0.00 0.00 0.01 0.01 0.02 0.02 0.02 0.03
0.00 0.00 0.00 0.00 0.00 0.00 0.01 0.01 0.00 0.00 0.00 0.00 0.00 0.00 0.00 0.00 0.00 0.00 0.00 0.00 0.00 0.00 0.00 0.00 0.01 0.01 0.01 0.01 0.01 0.01 0.02 0.02 0.01 0.00 0.00 0.00 0.00 0.01 0.01 0.02 0.03 0.04 0.04
0.00 0.00 0.00 0.00 0.00 0.00 0.00 0.00 0.00 0.00 0.00 0.00 0.00 0.00 0.00 0.00 0.00 0.00 0.00 0.00 0.00 0.00 0.00 0.00 0.01 0.01 0.01 0.02 0.02 0.02 0.02 0.01 0.00 0.00 0.00 0.00 0.01 0.02 0.01 0.02 0.02 0.04 0.05
0.00 0.00 0.00 0.00 0.00 0.00 0.00 0.00 0.00 0.00 0.00 0.00 0.00 0.00 0.00 0.00 0.00 0.00 0.00 0.00 0.00 0.00 0.00 0.00 0.00 0.01 0.01 0.01 0.01 0.01 0.02 0.01 0.00 0.00 0.00 0.00 0.01 0.02 0.02 0.01 0.02 0.03 0.04
0.00 0.00 0.00 0.00 0.00 0.00 0.00 0.01 0.01 0.01 0.01 0.00 0.00 0.00 0.00 0.00 0.00 0.00 0.00 0.00 0.00 0.00 0.00 0.00 0.00 0.00 0.00 0.00 0.00 0.01 0.01 0.01 0.01 0.00 0.00 0.00 0.01 0.01 0.01 0.02 0.02 0.05 0.04
0.00 0.00 0.00 0.00 0.00 0.00 0.01 0.01 0.01 0.01 0.01 0.01 0.00 0.00 0.00 0.00 0.00 0.00 0.00 0.00 0.00 0.00 0.00 0.00 0.00 0.00 0.00 0.00 0.00 0.01 0.01 0.01 0.01 0.00 0.00 0.00 0.01 0.01 0.01 0.01 0.02 0.03 0.03
0.00 0.00 0.00 0.00 0.00 0.00 0.00 0.00 0.01 0.02 0.02 0.01 0.00 0.00 0.00 0.00 0.00 0.00 0.00 0.00 0.00 0.00 0.00 0.00 0.00 0.00 0.00 0.00 0.00 0.01 0.01 0.00 0.00 0.00 0.00 0.00 0.00 0.00 0.00 0.00 0.01 0.02 0.02
0.01 0.01 0.00 0.00 0.00 0.00 0.00 0.00 0.00 0.01 0.01 0.01 0.00 0.00 0.00 0.00 0.00 0.00 0.00 0.00 0.00 0.00 0.00 0.00 0.00 0.00 0.00 0.00 0.00 0.00 0.00 0.00 0.00 0.00 0.00 0.00 0.00 0.00 0.00 0.00 0.00 0.00 0.01
0.07 0.05 0.03 0.02 0.01 0.01 0.01 0.00 0.01 0.01 0.01 0.00 0.00 0.00 0.00 0.00 0.00 0.00 0.00 0.00 0.00 0.00 0.00 0.00 0.00 0.00 0.00 0.00 0.00 0.00 0.00 0.00 0.00 0.00 0.00 0.00 0.00 0.00 0.00 0.00 0.00 0.00 0.00
0.15 0.15 0.13 0.06 0.03 0.02 0.02 0.01 0.01 0.01 0.00 0.00 0.00 0.00 0.00 0.00 0.00 0.00 0.00 0.00 0.00 0.00 0.00 0.00 0.00 0.00 0.00 0.00 0.00 0.00 0.00 0.00 0.00 0.00 0.00 0.00 0.00 0.00 0.00 0.00 0.00 0.00 0.00
0.17 0.21 0.23 0.19 0.11 0.09 0.06 0.04 0.02 0.01 0.00 0.00 0.00 0.00 0.00 0.00 0.00 0.00 0.00 0.00 0.00 0.00 0.00 0.00 0.00 0.00 0.00 0.00 0.00 0.00 0.00 0.00 0.00 0.00 0.00 0.00 0.00 0.00 0.00 0.00 0.00 0.00 0.00
0.16 0.20 0.26 0.29 0.26 0.22 0.19 0.15 0.10 0.06 0.03 0.01 0.00 0.00 0.00 0.00 0.00 0.01 0.01 0.01 0.00 0.00 0.00 0.00 0.00 0.00 0.00 0.00 0.00 0.00 0.00 0.00 0.00 0.00 0.00 0.00 0.00 0.00 0.00 0.00 0.00 0.00 0.00
0.17 0.21 0.27 0.34 0.37 0.36 0.32 0.32 0.24 0.18 0.14 0.05 0.02 0.01 0.00 0.01 0.02 0.03 0.05 0.03 0.01 0.00 0.00 0.00 0.00 0.00 0.00 0.00 0.00 0.00 0.00 0.00 0.00 0.00 0.00 0.00 0.00 0.00 0.00 0.00 0.00 0.00 0.00
0.16 0.19 0.23 0.26 0.30 0.35 0.36 0.37 0.37 0.32 0.25 0.16 0.08 0.06 0.03 0.02 0.03 0.05 0.05 0.05 0.05 0.02 0.01 0.00 0.00 0.00 0.00 0.00 0.00 0.00 0.00 0.00 0.00 0.00 0.00 0.00 0.00 0.00 0.00 0.00 0.00 0.00 0.00
0.10 0.11 0.13 0.17 0.19 0.21 0.26 0.33 0.40 0.41 0.35 0.29 0.23 0.14 0.09 0.07 0.06 0.06 0.08 0.10 0.12 0.08 0.04 0.01 0.00 0.00 0.00 0.00 0.00 0.00 0.00 0.00 0.00 0.00 0.00 0.00 0.00 0.00 0.00 0.00 0.00 0.00 0.00
0.04 0.07 0.09 0.11 0.12 0.12 0.16 0.22 0.27 0.30 0.31 0.35 0.33 0.25 0.21 0.16 0.12 0.11 0.15 0.18 0.17 0.12 0.06 0.03 0.01 0.00 0.00 0.00 0.00 0.00 0.00 0.00 0.00 0.00 0.00 0.00 0.00 0.00 0.00 0.00 0.00 0.00 0.00
0.01 0.02 0.03 0.04 0.06 0.07 0.08 0.10 0.14 0.18 0.26 0.32 0.39 0.40 0.40 0.32 0.25 0.21 0.21 0.23 0.21 0.16 0.12 0.09 0.04 0.01 0.01 0.00 0.00 0.00 0.00 0.00 0.00 0.00 0.00 0.00 0.00 0.00 0.00 0.00 0.00 0.00 0.00
0.00 0.00 0.01 0.01 0.02 0.03 0.04 0.05 0.06 0.10 0.16 0.22 0.36 0.42 0.45 0.42 0.38 0.34 0.29 0.30 0.28 0.25 0.20 0.15 0.09 0.04 0.02 0.02 0.02 0.02 0.01 0.00 0.00 0.00 0.00 0.00 0.00 0.00 0.00 0.00 0.00 0.00 0.00
0.00 0.00 0.00 0.00 0.01 0.01 0.02 0.02 0.03 0.06 0.09 0.14 0.20 0.31 0.43 0.51 0.53 0.48 0.41 0.39 0.36 0.30 0.25 0.22 0.18 0.13 0.09 0.08 0.06 0.04 0.02 0.01 0.01 0.00 0.00 0.00 0.00 0.00 0.00 0.00 0.00 0.00 0.00
0.00 0.00 0.00 0.00 0.00 0.00 0.00 0.01 0.01 0.03 0.05 0.07 0.14 0.27 0.38 0.47 0.56 0.56 0.51 0.47 0.44 0.40 0.33 0.29 0.27 0.23 0.20 0.16 0.13 0.10 0.07 0.03 0.01 0.00 0.00 0.00 0.00 0.00 0.00 0.00 0.00 0.00 0.00
0.00 0.00 0.00 0.00 0.00 0.00 0.00 0.00 0.01 0.01 0.01 0.03 0.07 0.14 0.19 0.28 0.38 0.44 0.47 0.46 0.44 0.45 0.44 0.40 0.35 0.31 0.28 0.24 0.21 0.18 0.14 0.10 0.06 0.03 0.01 0.00 0.00 0.00 0.00 0.00 0.00 0.00 0.00
0.00 0.00 0.00 0.00 0.00 0.00 0.00 0.01 0.01 0.01 0.01 0.01 0.03 0.06 0.07 0.11 0.17 0.26 0.34 0.36 0.38 0.41 0.43 0.42 0.40 0.39 0.37 0.33 0.29 0.24 0.19 0.15 0.12 0.09 0.05 0.02 0.01 0.00 0.00 0.00 0.00 0.00 0.00

GEFSSE_prec_meanprec_036.txt.gz
QPF
0.00 0.00 0.01 0.02 0.03 0.02 0.03 0.03 0.03 0.03 0.03 0.04 0.04 0.04 0.03 0.03 0.03 0.03 0.03 0.02 0.02 0.02 0.04 0.05 0.05 0.04 0.03 0.03 0.02 0.03 0.03 0.02 0.01 0.02 0.01 0.00 0.00 0.00 0.00 0.01 0.01 0.03 0.02
0.00 0.00 0.01 0.01 0.01 0.01 0.01 0.01 0.01 0.02 0.02 0.03 0.03 0.02 0.02 0.02 0.02 0.02 0.03 0.02 0.02 0.03 0.04 0.05 0.06 0.06 0.05 0.06 0.07 0.07 0.05 0.03 0.02 0.02 0.02 0.01 0.01 0.01 0.01 0.01 0.02 0.04 0.03
0.00 0.00 0.00 0.01 0.01 0.01 0.01 0.01 0.01 0.02 0.02 0.02 0.01 0.02 0.02 0.02 0.02 0.03 0.02 0.02 0.03 0.03 0.04 0.04 0.06 0.07 0.06 0.08 0.11 0.10 0.08 0.04 0.02 0.01 0.01 0.03 0.02 0.01 0.03 0.04 0.03 0.02 0.01
0.00 0.00 0.00 0.00 0.01 0.01 0.01 0.01 0.01 0.02 0.02 0.02 0.02 0.02 0.02 0.02 0.02 0.02 0.02 0.02 0.02 0.02 0.02 0.04 0.05 0.07 0.07 0.08 0.09 0.11 0.10 0.07 0.03 0.01 0.01 0.02 0.03 0.02 0.03 0.05 0.06 0.05 0.04
0.00 0.00 0.00 0.00 0.00 0.00 0.00 0.01 0.01 0.02 0.02 0.02 0.01 0.01 0.01 0.02 0.02 0.01 0.01 0.01 0.01 0.02 0.03 0.04 0.06 0.07 0.07 0.07 0.07 0.09 0.09 0.07 0.03 0.01 0.01 0.03 0.06 0.04 0.04 0.06 0.05 0.06 0.07
0.00 0.00 0.00 0.00 0.00 0.00 0.00 0.01 0.01 0.02 0.01 0.01 0.01 0.01 0.01 0.01 0.01 0.01 0.01 0.01 0.00 0.01 0.02 0.04 0.06 0.07 0.06 0.05 0.06 0.10 0.12 0.09 0.03 0.01 0.01 0.02 0.05 0.05 0.05 0.06 0.07 0.07 0.07
0.00 0.00 0.00 0.00 0.00 0.00 0.00 0.01 0.01 0.01 0.01 0.01 0.01 0.00 0.00 0.00 0.01 0.01 0.01 0.00 0.00 0.00 0.01 0.02 0.04 0.05 0.04 0.04 0.05 0.08 0.10 0.08 0.02 0.00 0.01 0.02 0.03 0.04 0.05 0.06 0.08 0.08 0.07
0.00 0.00 0.00 0.00 0.00 0.00 0.00 0.01 0.01 0.01 0.01 0.01 0.01 0.00 0.00 0.00 0.00 0.01 0.01 0.00 0.00 0.00 0.00 0.01 0.02 0.04 0.03 0.03 0.04 0.06 0.08 0.07 0.02 0.00 0.00 0.01 0.03 0.05 0.05 0.06 0.06 0.05 0.07
0.00 0.00 0.00 0.00 0.00 0.00 0.00 0.01 0.02 0.02 0.02 0.02 0.01 0.01 0.00 0.00 0.00 0.00 0.00 0.00 0.00 0.00 0.00 0.01 0.01 0.02 0.02 0.02 0.03 0.05 0.06 0.05 0.04 0.01 0.00 0.02 0.04 0.04 0.04 0.03 0.04 0.05 0.05
0.00 0.00 0.00 0.00 0.00 0.01 0.01 0.02 0.04 0.05 0.06 0.05 0.02 0.01 0.01 0.00 0.01 0.01 0.01 0.00 0.00 0.00 0.00 0.00 0.00 0.00 0.01 0.01 0.02 0.04 0.05 0.05 0.03 0.01 0.00 0.01 0.02 0.02 0.01 0.00 0.01 0.02 0.02
0.01 0.00 0.00 0.00 0.01 0.01 0.01 0.02 0.06 0.11 0.12 0.11 0.08 0.03 0.01 0.02 0.02 0.03 0.02 0.00 0.00 0.00 0.00 0.00 0.00 0.00 0.00 0.01 0.02 0.02 0.02 0.04 0.03 0.01 0.00 0.01 0.01 0.01 0.00 0.00 0.00 0.01 0.02
0.08 0.04 0.02 0.02 0.02 0.02 0.01 0.02 0.06 0.11 0.15 0.12 0.14 0.09 0.07 0.05 0.03 0.02 0.02 0.00 0.00 0.00 0.00 0.00 0.00 0.00 0.00 0.00 0.00 0.01 0.01 0.02 0.02 0.01 0.00 0.00 0.00 0.00 0.00 0.00 0.00 0.01 0.01
0.17 0.14 0.08 0.05 0.04 0.04 0.05 0.05 0.08 0.10 0.11 0.11 0.12 0.12 0.13 0.10 0.04 0.01 0.02 0.01 0.01 0.00 0.00 0.00 0.00 0.00 0.00 0.00 0.00 0.00 0.00 0.00 0.00 0.00 0.00 0.00 0.00 0.00 0.00 0.00 0.00 0.00 0.00
0.18 0.22 0.16 0.11 0.11 0.09 0.09 0.08 0.08 0.09 0.08 0.08 0.08 0.09 0.12 0.11 0.06 0.03 0.02 0.01 0.01 0.01 0.00 0.00 0.00 0.00 0.00 0.00 0.00 0.00 0.00 0.00 0.00 0.00 0.00 0.00 0.00 0.00 0.00 0.00 0.00 0.00 0.00
0.20 0.22 0.20 0.16 0.15 0.15 0.15 0.15 0.10 0.11 0.11 0.10 0.10 0.08 0.09 0.09 0.08 0.05 0.02 0.01 0.01 0.00 0.00 0.00 0.00 0.00 0.00 0.00 0.00 0.00 0.00 0.00 0.00 0.00 0.00 0.00 0.00 0.00 0.00 0.00 0.00 0.00 0.00
0.16 0.18 0.17 0.18 0.19 0.18 0.17 0.18 0.16 0.16 0.18 0.17 0.11 0.09 0.08 0.09 0.07 0.07 0.03 0.02 0.01 0.00 0.00 0.00 0.00 0.00 0.00 0.00 0.00 0.00 0.00 0.00 0.00 0.00 0.00 0.00 0.00 0.00 0.00 0.00 0.01 0.01 0.01
0.11 0.12 0.11 0.12 0.16 0.20 0.23 0.27 0.23 0.22 0.24 0.23 0.18 0.17 0.13 0.10 0.08 0.08 0.05 0.03 0.02 0.01 0.00 0.00 0.00 0.00 0.00 0.00 0.00 0.00 0.00 0.00 0.00 0.00 0.00 0.00 0.00 0.00 0.00 0.00 0.00 0.01 0.01
0.05 0.06 0.05 0.06 0.08 0.11 0.18 0.25 0.29 0.31 0.33 0.29 0.27 0.25 0.19 0.15 0.14 0.12 0.08 0.05 0.04 0.04 0.04 0.02 0.01 0.00 0.00 0.00 0.00 0.00 0.00 0.00 0.00 0.00 0.00 0.00 0.00 0.00 0.00 0.00 0.00 0.00 0.01
0.01 0.01 0.01 0.02 0.03 0.05 0.07 0.10 0.16 0.21 0.30 0.33 0.33 0.32 0.26 0.19 0.15 0.15 0.13 0.13 0.14 0.13 0.10 0.05 0.02 0.01 0.00 0.00 0.00 0.00 0.00 0.00 0.00 0.00 0.00 0.00 0.00 0.00 0.00 0.00 0.00 0.00 0.00
0.00 0.00 0.00 0.00 0.00 0.01 0.01 0.03 0.06 0.11 0.18 0.27 0.30 0.28 0.28 0.27 0.23 0.19 0.16 0.17 0.18 0.18 0.15 0.11 0.07 0.04 0.02 0.01 0.00 0.00 0.00 0.00 0.00 0.00 0.00 0.00 0.00 0.00 0.00 0.00 0.00 0.00 0.00
0.00 0.00 0.00 0.00 0.00 0.00 0.00 0.01 0.01 0.04 0.07 0.12 0.19 0.21 0.25 0.27 0.28 0.26 0.20 0.19 0.19 0.19 0.18 0.18 0.15 0.08 0.04 0.02 0.02 0.02 0.01 0.00 0.00 0.00 0.00 0.00 0.00 0.00 0.00 0.00 0.00 0.00 0.00
0.00 0.00 0.00 0.00 0.00 0.00 0.00 0.00 0.01 0.01 0.02 0.03 0.06 0.10 0.15 0.17 0.20 0.19 0.18 0.20 0.22 0.24 0.24 0.23 0.21 0.16 0.09 0.05 0.05 0.07 0.06 0.04 0.01 0.00 0.00 0.00 0.00 0.00 0.00 0.00 0.00 0.00 0.00
0.00 0.00 0.00 0.00 0.00 0.00 0.00 0.00 0.01 0.01 0.01 0.01 0.02 0.04 0.09 0.12 0.15 0.17 0.17 0.23 0.24 0.23 0.20 0.19 0.20 0.22 0.19 0.12 0.07 0.09 0.08 0.07 0.06 0.01 0.00 0.00 0.00 0.00 0.00 0.00 0.00 0.00 0.00
0.00 0.00 0.00 0.00 0.00 0.01 0.01 0.01 0.01 0.01 0.01 0.01 0.02 0.03 0.04 0.07 0.10 0.14 0.18 0.21 0.21 0.20 0.19 0.18 0.20 0.23 0.26 0.22 0.15 0.10 0.08 0.06 0.07 0.06 0.02 0.00 0.00 0.00 0.00 0.00 0.00 0.00 0.00
0.01 0.01 0.01 0.02 0.03 0.03 0.02 0.02 0.02 0.02 0.02 0.02 0.02 0.02 0.03 0.04 0.06 0.10 0.13 0.14 0.16 0.16 0.17 0.18 0.18 0.19 0.22 0.24 0.21 0.17 0.13 0.09 0.06 0.07 0.08 0.04 0.02 0.01 0.00 0.00 0.00 0.00 0.00
0.05 0.05 0.05 0.05 0.07 0.07 0.07 0.06 0.05 0.04 0.03 0.03 0.03 0.03 0.04 0.04 0.04 0.05 0.07 0.08 0.10 0.11 0.14 0.16 0.17 0.18 0.19 0.22 0.25 0.23 0.20 0.17 0.13 0.11 0.11 0.09 0.07 0.03 0.01 0.00 0.00 0.00 0.00

GEFSSE_prec_meanprec_042.txt.gz
QPF
0.00 0.00 0.00 0.00 0.01 0.01 0.01 0.01 0.02 0.02 0.03 0.03 0.03 0.02 0.02 0.02 0.01 0.02 0.02 0.01 0.01 0.01 0.01 0.01 0.00 0.00 0.01 0.02 0.02 0.02 0.02 0.02 0.02 0.01 0.01 0.02 0.01 0.00 0.00 0.02 0.10 0.15 0.03
0.00 0.00 0.00 0.00 0.01 0.01 0.01 0.01 0.01 0.01 0.02 0.02 0.02 0.02 0.01 0.02 0.02 0.02 0.01 0.01 0.01 0.01 0.01 0.01 0.01 0.02 0.04 0.04 0.05 0.05 0.05 0.04 0.03 0.03 0.05 0.06 0.02 0.01 0.01 0.04 0.13 0.12 0.04
0.00 0.00 0.00 0.00 0.01 0.01 0.01 0.01 0.00 0.01 0.01 0.01 0.01 0.01 0.00 0.01 0.01 0.01 0.01 0.01 0.01 0.01 0.02 0.01 0.02 0.05 0.06 0.06 0.08 0.08 0.07 0.05 0.03 0.06 0.19 0.22 0.08 0.02 0.01 0.03 0.04 0.03 0.03
0.00 0.00 0.00 0.00 0.01 0.01 0.00 0.00 0.00 0.00 0.00 0.00 0.01 0.00 0.00 0.00 0.00 0.01 0.01 0.01 0.01 0.01 0.01 0.02 0.04 0.06 0.06 0.06 0.08 0.08 0.06 0.05 0.05 0.12 0.26 0.23 0.12 0.02 0.02 0.03 0.03 0.03 0.03
0.00 0.00 0.00 0.00 0.00 0.00 0.00 0.00 0.01 0.01 0.00 0.00 0.00 0.01 0.01 0.00 0.00 0.00 0.00 0.00 0.00 0.00 0.00 0.01 0.02 0.04 0.05 0.07 0.07 0.07 0.06 0.06 0.07 0.13 0.18 0.19 0.14 0.03 0.02 0.04 0.05 0.03 0.03
0.00 0.00 0.00 0.00 0.00 0.00 0.00 0.01 0.01 0.01 0.00 0.00 0.00 0.00 0.01 0.01 0.00 0.00 0.00 0.00 0.00 0.00 0.01 0.01 0.01 0.02 0.04 0.05 0.06 0.07 0.07 0.07 0.13 0.16 0.14 0.16 0.12 0.02 0.01 0.03 0.05 0.06 0.06
0.00 0.00 0.00 0.00 0.00 0.01 0.01 0.01 0.02 0.01 0.01 0.00 0.00 0.00 0.00 0.00 0.00 0.00 0.00 0.00 0.00 0.00 0.00 0.00 0.01 0.02 0.02 0.04 0.05 0.06 0.05 0.06 0.16 0.15 0.11 0.12 0.05 0.00 0.00 0.01 0.03 0.06 0.08
0.00 0.00 0.00 0.01 0.01 0.01 0.01 0.02 0.02 0.01 0.02 0.02 0.01 0.01 0.00 0.00 0.00 0.00 0.00 0.00 0.00 0.00 0.00 0.00 0.00 0.01 0.01 0.02 0.03 0.04 0.04 0.05 0.11 0.09 0.10 0.09 0.02 0.00 0.01 0.01 0.02 0.05 0.07
0.00 0.00 0.01 0.02 0.02 0.02 0.02 0.03 0.04 0.04 0.04 0.04 0.04 0.03 0.01 0.00 0.00 0.00 0.00 0.00 0.00 0.00 0.00 0.00 0.00 0.00 0.01 0.01 0.02 0.03 0.03 0.04 0.06 0.04 0.07 0.06 0.01 0.00 0.01 0.02 0.02 0.04 0.04
0.00 0.01 0.02 0.05 0.05 0.07 0.10 0.12 0.09 0.07 0.07 0.08 0.07 0.05 0.02 0.01 0.00 0.00 0.00 0.00 0.00 0.00 0.00 0.00 0.00 0.00 0.01 0.01 0.01 0.02 0.01 0.01 0.03 0.02 0.03 0.01 0.00 0.00 0.00 0.01 0.01 0.02 0.02
0.01 0.01 0.02 0.04 0.06 0.06 0.07 0.15 0.14 0.13 0.15 0.13 0.10 0.06 0.03 0.02 0.05 0.05 0.02 0.02 0.00 0.00 0.00 0.00 0.01 0.01 0.01 0.01 0.01 0.01 0.01 0.02 0.03 0.03 0.04 0.01 0.00 0.00 0.00 0.00 0.00 0.00 0.01
0.05 0.04 0.03 0.03 0.04 0.04 0.04 0.09 0.17 0.19 0.29 0.21 0.24 0.24 0.14 0.12 0.16 0.13 0.10 0.05 0.01 0.00 0.00 0.00 0.00 0.00 0.00 0.01 0.00 0.00 0.01 0.02 0.02 0.02 0.02 0.01 0.00 0.00 0.00 0.00 0.00 0.00 0.00
0.07 0.07 0.06 0.06 0.06 0.06 0.08 0.10 0.17 0.20 0.24 0.25 0.33 0.42 0.41 0.32 0.21 0.12 0.15 0.11 0.02 0.01 0.00 0.00 0.00 0.00 0.00 0.00 0.01 0.00 0.01 0.01 0.02 0.02 0.02 0.01 0.00 0.00 0.00 0.00 0.00 0.00 0.00
0.06 0.07 0.07 0.07 0.07 0.08 0.11 0.14 0.19 0.20 0.22 0.26 0.23 0.30 0.36 0.36 0.24 0.14 0.17 0.16 0.09 0.04 0.01 0.01 0.00 0.00 0.00 0.00 0.00 0.00 0.00 0.00 0.01 0.01 0.01 0.00 0.00 0.00 0.00 0.00 0.00 0.00 0.00
0.06 0.07 0.08 0.07 0.07 0.08 0.10 0.14 0.16 0.20 0.27 0.36 0.29 0.24 0.30 0.32 0.25 0.17 0.11 0.11 0.08 0.05 0.02 0.01 0.00 0.00 0.00 0.00 0.00 0.00 0.00 0.00 0.00 0.00 0.00 0.00 0.00 0.00 0.00 0.00 0.00 0.00 0.00
0.04 0.05 0.06 0.05 0.06 0.07 0.08 0.11 0.11 0.12 0.16 0.17 0.16 0.15 0.23 0.29 0.25 0.22 0.12 0.10 0.07 0.04 0.02 0.01 0.00 0.00 0.00 0.00 0.00 0.00 0.00 0.00 0.00 0.00 0.00 0.00 0.00 0.00 0.00 0.00 0.00 0.00 0.00
0.02 0.02 0.03 0.03 0.03 0.04 0.05 0.08 0.10 0.09 0.11 0.15 0.16 0.15 0.18 0.24 0.24 0.24 0.18 0.13 0.09 0.07 0.04 0.02 0.00 0.00 0.00 0.00 0.00 0.00 0.00 0.00 0.00 0.00 0.00 0.00 0.00 0.00 0.00 0.00 0.00 0.00 0.01
0.01 0.01 0.01 0.01 0.01 0.01 0.01 0.02 0.04 0.07 0.09 0.11 0.15 0.15 0.17 0.23 0.27 0.30 0.26 0.16 0.10 0.15 0.12 0.06 0.01 0.00 0.00 0.00 0.00 0.00 0.00 0.00 0.00 0.00 0.00 0.00 0.00 0.00 0.00 0.00 0.00 0.00 0.00
0.00 0.00 0.00 0.00 0.00 0.00 0.00 0.01 0.02 0.03 0.05 0.08 0.12 0.17 0.17 0.15 0.18 0.27 0.28 0.20 0.15 0.17 0.16 0.10 0.05 0.01 0.00 0.00 0.00 0.00 0.00 0.00 0.00 0.00 0.00 0.00 0.00 0.00 0.00 0.00 0.00 0.00 0.00
0.00 0.00 0.00 0.00 0.00 0.00 0.00 0.00 0.01 0.02 0.03 0.05 0.08 0.11 0.14 0.15 0.13 0.15 0.18 0.18 0.19 0.21 0.18 0.14 0.11 0.06 0.02 0.01 0.01 0.01 0.00 0.00 0.00 0.00 0.00 0.00 0.00 0.00 0.00 0.00 0.00 0.00 0.00
0.00 0.00 0.00 0.00 0.00 0.00 0.00 0.00 0.01 0.02 0.02 0.03 0.04 0.06 0.09 0.09 0.09 0.11 0.13 0.15 0.19 0.22 0.20 0.17 0.18 0.15 0.09 0.04 0.04 0.04 0.03 0.01 0.01 0.00 0.00 0.00 0.00 0.00 0.00 0.00 0.00 0.00 0.00
0.00 0.00 0.00 0.00 0.00 0.00 0.01 0.01 0.01 0.01 0.02 0.02 0.03 0.04 0.07 0.09 0.09 0.08 0.09 0.11 0.16 0.20 0.21 0.21 0.23 0.24 0.16 0.09 0.11 0.15 0.14 0.10 0.05 0.01 0.01 0.00 0.00 0.00 0.00 0.01 0.00 0.00 0.00
0.01 0.01 0.00 0.01 0.01 0.01 0.01 0.02 0.03 0.03 0.03 0.04 0.04 0.05 0.07 0.09 0.10 0.10 0.12 0.13 0.16 0.22 0.24 0.23 0.21 0.23 0.22 0.16 0.12 0.13 0.14 0.15 0.16 0.07 0.02 0.02 0.02 0.01 0.00 0.00 0.01 0.01 0.01
0.02 0.02 0.02 0.02 0.03 0.05 0.06 0.07 0.07 0.06 0.06 0.07 0.07 0.07 0.07 0.08 0.08 0.11 0.15 0.20 0.22 0.25 0.26 0.28 0.25 0.22 0.23 0.21 0.17 0.11 0.09 0.10 0.17 0.18 0.12 0.07 0.04 0.02 0.01 0.01 0.01 0.01 0.01
0.03 0.03 0.05 0.06 0.08 0.12 0.14 0.15 0.15 0.14 0.16 0.14 0.12 0.08 0.08 0.09 0.09 0.09 0.14 0.20 0.24 0.26 0.27 0.32 0.32 0.29 0.25 0.23 0.17 0.13 0.12 0.11 0.10 0.13 0.18 0.16 0.10 0.06 0.03 0.02 0.01 0.01 0.01
0.04 0.05 0.07 0.09 0.12 0.15 0.17 0.18 0.18 0.18 0.17 0.15 0.15 0.14 0.14 0.12 0.10 0.10 0.13 0.17 0.19 0.22 0.27 0.30 0.32 0.31 0.29 0.29 0.23 0.15 0.12 0.11 0.09 0.10 0.12 0.14 0.16 0.13 0.09 0.07 0.04 0.02 0.02

GEFSSE_prec_meanprec_048.txt.gz
QPF
0.00 0.00 0.00 0.00 0.00 0.00 0.00 0.00 0.00 0.00 0.01 0.00 0.00 0.00 0.00 0.00 0.00 0.00 0.00 0.00 0.00 0.00 0.00 0.00 0.00 0.00 0.00 0.00 0.01 0.02 0.02 0.03 0.03 0.02 0.02 0.02 0.02 0.03 0.04 0.07 0.08 0.04 0.05
0.00 0.00 0.00 0.00 0.00 0.00 0.00 0.00 0.00 0.00 0.00 0.00 0.00 0.00 0.00 0.00 0.00 0.00 0.00 0.00 0.00 0.00 0.00 0.00 0.00 0.00 0.01 0.01 0.01 0.02 0.02 0.02 0.03 0.03 0.04 0.03 0.03 0.04 0.04 0.06 0.06 0.04 0.04
0.00 0.00 0.00 0.00 0.00 0.00 0.00 0.00 0.00 0.00 0.00 0.00 0.00 0.00 0.00 0.00 0.00 0.00 0.00 0.00 0.00 0.00 0.00 0.00 0.00 0.00 0.00 0.01 0.02 0.01 0.01 0.02 0.02 0.03 0.05 0.04 0.02 0.03 0.03 0.03 0.03 0.03 0.04
0.00 0.00 0.00 0.00 0.00 0.00 0.00 0.00 0.00 0.00 0.00 0.00 0.00 0.00 0.00 0.00 0.00 0.00 0.00 0.00 0.00 0.00 0.00 0.00 0.00 0.00 0.01 0.01 0.01 0.01 0.01 0.02 0.03 0.05 0.05 0.05 0.03 0.05 0.04 0.03 0.03 0.02 0.03
0.00 0.00 0.00 0.00 0.00 0.00 0.00 0.00 0.00 0.00 0.00 0.00 0.00 0.00 0.00 0.00 0.00 0.00 0.00 0.00 0.00 0.00 0.00 0.00 0.00 0.00 0.01 0.01 0.01 0.00 0.01 0.03 0.05 0.06 0.04 0.03 0.03 0.06 0.04 0.03 0.03 0.03 0.05
0.01 0.01 0.00 0.00 0.00 0.00 0.00 0.00 0.00 0.00 0.00 0.00 0.00 0.00 0.00 0.00 0.00 0.00 0.00 0.00 0.00 0.00 0.00 0.00 0.00 0.00 0.01 0.01 0.01 0.01 0.01 0.06 0.08 0.06 0.06 0.03 0.02 0.05 0.03 0.01 0.02 0.03 0.06
0.03 0.01 0.01 0.01 0.00 0.00 0.00 0.00 0.00 0.00 0.00 0.00 0.00 0.00 0.00 0.00 0.00 0.00 0.00 0.00 0.00 0.00 0.00 0.00 0.00 0.00 0.00 0.00 0.01 0.01 0.02 0.05 0.13 0.10 0.08 0.04 0.02 0.02 0.01 0.01 0.01 0.02 0.04
0.08 0.06 0.04 0.05 0.04 0.02 0.01 0.00 0.00 0.00 0.00 0.00 0.00 0.00 0.00 0.00 0.00 0.00 0.00 0.00 0.00 0.00 0.00 0.00 0.00 0.00 0.00 0.00 0.01 0.01 0.02 0.05 0.13 0.14 0.08 0.04 0.03 0.01 0.01 0.01 0.01 0.02 0.03
0.21 0.18 0.16 0.14 0.12 0.11 0.09 0.06 0.04 0.03 0.02 0.01 0.01 0.01 0.00 0.00 0.00 0.00 0.00 0.00 0.00 0.00 0.00 0.00 0.00 0.00 0.00 0.00 0.01 0.01 0.02 0.04 0.07 0.14 0.08 0.03 0.03 0.02 0.00 0.01 0.01 0.02 0.02
0.24 0.26 0.25 0.24 0.22 0.19 0.17 0.16 0.14 0.11 0.08 0.04 0.03 0.02 0.01 0.01 0.00 0.00 0.00 0.00 0.00 0.00 0.00 0.00 0.00 0.00 0.00 0.00 0.00 0.01 0.02 0.03 0.09 0.10 0.05 0.03 0.04 0.02 0.00 0.01 0.01 0.01 0.01
0.19 0.22 0.25 0.28 0.28 0.25 0.21 0.21 0.21 0.18 0.14 0.11 0.07 0.06 0.03 0.02 0.01 0.00 0.00 0.00 0.00 0.00 0.00 0.00 0.00 0.00 0.00 0.00 0.00 0.01 0.01 0.03 0.10 0.08 0.04 0.05 0.05 0.01 0.00 0.00 0.00 0.00 0.00
0.19 0.22 0.25 0.27 0.28 0.27 0.24 0.26 0.25 0.19 0.13 0.11 0.09 0.09 0.07 0.05 0.03 0.02 0.02 0.04 0.03 0.01 0.00 0.00 0.00 0.00 0.00 0.00 0.00 0.01 0.01 0.03 0.10 0.07 0.04 0.09 0.05 0.01 0.00 0.00 0.00 0.00 0.00
0.15 0.16 0.17 0.21 0.24 0.24 0.23 0.27 0.29 0.25 0.19 0.14 0.10 0.09 0.08 0.08 0.05 0.05 0.06 0.07 0.07 0.03 0.00 0.00 0.00 0.00 0.00 0.00 0.00 0.00 0.01 0.03 0.07 0.05 0.04 0.08 0.05 0.01 0.00 0.00 0.00 0.00 0.00
0.08 0.09 0.09 0.09 0.11 0.13 0.13 0.19 0.25 0.27 0.28 0.24 0.20 0.16 0.15 0.13 0.11 0.10 0.11 0.11 0.09 0.06 0.02 0.00 0.00 0.00 0.00 0.00 0.00 0.00 0.01 0.02 0.05 0.04 0.03 0.04 0.03 0.01 0.00 0.00 0.00 0.00 0.00
0.02 0.02 0.03 0.04 0.04 0.05 0.06 0.09 0.16 0.22 0.24 0.24 0.34 0.30 0.27 0.20 0.16 0.14 0.15 0.18 0.16 0.13 0.08 0.02 0.01 0.01 0.01 0.00 0.01 0.00 0.01 0.01 0.02 0.02 0.01 0.02 0.01 0.01 0.00 0.00 0.00 0.00 0.00
0.01 0.01 0.01 0.01 0.02 0.02 0.03 0.04 0.06 0.09 0.13 0.16 0.20 0.24 0.23 0.23 0.20 0.15 0.16 0.18 0.24 0.25 0.22 0.13 0.06 0.03 0.02 0.02 0.02 0.02 0.01 0.01 0.01 0.01 0.00 0.00 0.00 0.00 0.00 0.00 0.00 0.00 0.00
0.00 0.00 0.00 0.00 0.00 0.01 0.01 0.01 0.02 0.03 0.04 0.07 0.10 0.18 0.19 0.18 0.21 0.24 0.23 0.20 0.20 0.29 0.33 0.27 0.19 0.12 0.05 0.02 0.01 0.02 0.02 0.01 0.00 0.01 0.00 0.00 0.00 0.00 0.00 0.00 0.00 0.00 0.00
0.00 0.00 0.00 0.00 0.00 0.00 0.00 0.00 0.00 0.01 0.01 0.02 0.05 0.11 0.14 0.16 0.20 0.26 0.29 0.24 0.22 0.26 0.32 0.34 0.30 0.22 0.11 0.05 0.02 0.01 0.01 0.01 0.01 0.00 0.00 0.00 0.00 0.00 0.00 0.00 0.00 0.00 0.00
0.00 0.00 0.00 0.00 0.00 0.00 0.00 0.00 0.00 0.00 0.01 0.01 0.03 0.06 0.07 0.11 0.14 0.19 0.25 0.27 0.24 0.26 0.33 0.37 0.32 0.25 0.16 0.08 0.03 0.01 0.00 0.00 0.01 0.01 0.00 0.00 0.00 0.00 0.00 0.00 0.00 0.00 0.00
0.00 0.00 0.00 0.00 0.00 0.00 0.00 0.00 0.00 0.00 0.01 0.01 0.02 0.03 0.05 0.07 0.09 0.10 0.12 0.15 0.17 0.20 0.25 0.36 0.40 0.30 0.22 0.14 0.08 0.04 0.01 0.01 0.01 0.01 0.01 0.01 0.01 0.00 0.00 0.00 0.00 0.00 0.00
0.00 0.00 0.00 0.00 0.00 0.00 0.00 0.00 0.00 0.00 0.01 0.01 0.01 0.02 0.03 0.04 0.05 0.08 0.09 0.09 0.11 0.13 0.16 0.26 0.36 0.29 0.23 0.19 0.16 0.12 0.07 0.05 0.03 0.02 0.02 0.01 0.01 0.01 0.01 0.00 0.00 0.00 0.00
0.00 0.00 0.00 0.00 0.00 0.00 0.00 0.00 0.01 0.01 0.01 0.01 0.01 0.02 0.03 0.03 0.04 0.06 0.06 0.06 0.07 0.10 0.14 0.18 0.25 0.27 0.23 0.19 0.18 0.17 0.13 0.09 0.07 0.05 0.03 0.02 0.01 0.01 0.01 0.00 0.01 0.01 0.00
0.00 0.00 0.00 0.00 0.00 0.00 0.00 0.00 0.01 0.01 0.02 0.02 0.01 0.02 0.03 0.03 0.04 0.05 0.06 0.07 0.08 0.09 0.10 0.13 0.17 0.21 0.21 0.19 0.17 0.15 0.11 0.08 0.08 0.08 0.08 0.07 0.06 0.04 0.03 0.02 0.01 0.02 0.02
0.00 0.00 0.00 0.00 0.00 0.00 0.01 0.01 0.01 0.01 0.02 0.02 0.03 0.03 0.03 0.04 0.05 0.07 0.08 0.08 0.10 0.12 0.12 0.13 0.16 0.19 0.19 0.20 0.19 0.15 0.11 0.08 0.07 0.08 0.10 0.13 0.12 0.08 0.06 0.04 0.03 0.02 0.01
0.00 0.00 0.00 0.00 0.01 0.01 0.02 0.02 0.02 0.02 0.03 0.04 0.05 0.06 0.06 0.07 0.08 0.09 0.10 0.12 0.12 0.16 0.17 0.17 0.20 0.25 0.27 0.25 0.22 0.20 0.17 0.13 0.08 0.05 0.07 0.13 0.16 0.12 0.09 0.07 0.05 0.04 0.03
0.00 0.00 0.00 0.00 0.00 0.01 0.02 0.02 0.03 0.03 0.04 0.05 0.06 0.08 0.09 0.09 0.08 0.09 0.11 0.12 0.13 0.18 0.22 0.26 0.28 0.30 0.33 0.35 0.35 0.28 0.22 0.18 0.13 0.09 0.06 0.08 0.15 0.17 0.14 0.11 0.08 0.06 0.06

GEFSSE_prec_meanprec_054.txt.gz
QPF
0.00 0.01 0.03 0.04 0.03 0.01 0.01 0.02 0.01 0.01 0.00 0.00 0.00 0.00 0.00 0.00 0.00 0.00 0.00 0.00 0.00 0.00 0.00 0.00 0.00 0.00 0.01 0.01 0.01 0.01 0.01 0.01 0.02 0.01 0.01 0.01 0.03 0.06 0.08 0.07 0.04 0.04 0.05
0.00 0.00 0.02 0.03 0.02 0.01 0.01 0.01 0.01 0.01 0.01 0.00 0.00 0.00 0.00 0.00 0.00 0.00 0.00 0.00 0.00 0.00 0.00 0.00 0.00 0.00 0.00 0.01 0.01 0.02 0.01 0.01 0.01 0.01 0.00 0.01 0.02 0.03 0.04 0.04 0.05 0.05 0.05
0.00 0.00 0.01 0.01 0.01 0.01 0.00 0.00 0.01 0.01 0.01 0.00 0.00 0.01 0.00 0.00 0.00 0.00 0.00 0.00 0.00 0.00 0.00 0.00 0.00 0.00 0.01 0.01 0.01 0.01 0.01 0.01 0.01 0.01 0.00 0.00 0.01 0.02 0.02 0.03 0.06 0.06 0.06
0.00 0.00 0.00 0.00 0.00 0.00 0.00 0.00 0.00 0.00 0.00 0.00 0.00 0.00 0.00 0.00 0.00 0.00 0.00 0.00 0.00 0.00 0.00 0.00 0.00 0.01 0.02 0.02 0.01 0.01 0.02 0.03 0.03 0.01 0.00 0.00 0.01 0.02 0.02 0.03 0.04 0.05 0.09
0.00 0.00 0.00 0.00 0.00 0.00 0.00 0.00 0.00 0.00 0.00 0.00 0.00 0.00 0.00 0.00 0.00 0.00 0.00 0.00 0.00 0.00 0.00 0.00 0.00 0.01 0.02 0.02 0.01 0.01 0.02 0.05 0.03 0.01 0.00 0.00 0.01 0.02 0.03 0.03 0.04 0.06 0.07
0.02 0.02 0.02 0.02 0.02 0.01 0.01 0.00 0.00 0.00 0.00 0.00 0.00 0.00 0.00 0.00 0.00 0.00 0.00 0.00 0.00 0.00 0.00 0.00 0.00 0.01 0.02 0.02 0.01 0.01 0.03 0.05 0.02 0.00 0.00 0.00 0.01 0.02 0.03 0.02 0.04 0.05 0.08
0.11 0.06 0.05 0.07 0.06 0.04 0.03 0.02 0.02 0.02 0.01 0.01 0.00 0.00 0.00 0.00 0.00 0.00 0.00 0.00 0.00 0.00 0.00 0.00 0.00 0.01 0.02 0.03 0.02 0.01 0.03 0.06 0.02 0.00 0.00 0.00 0.01 0.02 0.03 0.03 0.03 0.05 0.07
0.37 0.24 0.17 0.18 0.17 0.13 0.10 0.08 0.06 0.05 0.04 0.03 0.02 0.01 0.01 0.01 0.01 0.00 0.00 0.00 0.00 0.00 0.00 0.00 0.00 0.01 0.02 0.03 0.02 0.02 0.02 0.03 0.02 0.01 0.00 0.00 0.02 0.03 0.02 0.04 0.05 0.07 0.06
0.55 0.49 0.38 0.29 0.23 0.20 0.17 0.14 0.14 0.13 0.11 0.08 0.06 0.04 0.03 0.02 0.01 0.00 0.00 0.00 0.00 0.00 0.00 0.00 0.00 0.01 0.02 0.03 0.03 0.03 0.03 0.02 0.02 0.03 0.01 0.00 0.02 0.02 0.01 0.02 0.05 0.06 0.05
0.48 0.42 0.39 0.39 0.35 0.29 0.23 0.22 0.25 0.24 0.22 0.18 0.13 0.09 0.07 0.04 0.02 0.01 0.00 0.00 0.00 0.00 0.00 0.00 0.00 0.00 0.01 0.02 0.03 0.04 0.03 0.02 0.04 0.03 0.01 0.01 0.03 0.01 0.01 0.02 0.03 0.05 0.04
0.38 0.36 0.34 0.34 0.35 0.35 0.30 0.27 0.31 0.35 0.32 0.29 0.23 0.23 0.17 0.07 0.03 0.02 0.02 0.01 0.00 0.00 0.00 0.00 0.00 0.00 0.01 0.02 0.03 0.05 0.03 0.01 0.03 0.03 0.01 0.02 0.04 0.02 0.02 0.01 0.02 0.03 0.03
0.19 0.20 0.19 0.21 0.24 0.27 0.30 0.35 0.40 0.39 0.36 0.30 0.23 0.19 0.16 0.10 0.06 0.04 0.02 0.03 0.04 0.03 0.02 0.01 0.01 0.00 0.00 0.01 0.01 0.02 0.01 0.00 0.01 0.02 0.02 0.03 0.05 0.02 0.01 0.01 0.01 0.02 0.02
0.07 0.07 0.07 0.09 0.10 0.12 0.17 0.25 0.30 0.33 0.40 0.36 0.29 0.22 0.18 0.14 0.08 0.06 0.05 0.04 0.05 0.07 0.04 0.02 0.02 0.01 0.00 0.00 0.00 0.00 0.00 0.00 0.01 0.01 0.02 0.06 0.08 0.04 0.02 0.01 0.01 0.02 0.02
0.03 0.04 0.03 0.03 0.04 0.05 0.07 0.09 0.13 0.19 0.25 0.30 0.28 0.23 0.21 0.17 0.12 0.08 0.08 0.09 0.08 0.08 0.08 0.05 0.02 0.01 0.00 0.00 0.00 0.00 0.00 0.00 0.01 0.01 0.01 0.04 0.07 0.04 0.02 0.01 0.01 0.01 0.01
0.01 0.01 0.02 0.02 0.02 0.02 0.02 0.03 0.04 0.05 0.07 0.12 0.19 0.23 0.23 0.26 0.26 0.20 0.14 0.15 0.12 0.12 0.13 0.13 0.08 0.03 0.00 0.00 0.00 0.00 0.00 0.00 0.01 0.01 0.02 0.03 0.04 0.04 0.03 0.01 0.01 0.00 0.01
0.00 0.01 0.01 0.01 0.01 0.01 0.01 0.01 0.01 0.02 0.01 0.03 0.07 0.14 0.19 0.19 0.21 0.22 0.16 0.13 0.14 0.19 0.23 0.24 0.15 0.06 0.02 0.01 0.00 0.00 0.00 0.00 0.00 0.00 0.01 0.01 0.02 0.02 0.02 0.02 0.01 0.00 0.00
0.00 0.00 0.00 0.00 0.00 0.00 0.00 0.00 0.01 0.01 0.01 0.01 0.02 0.03 0.08 0.11 0.11 0.13 0.11 0.09 0.11 0.18 0.23 0.25 0.18 0.09 0.05 0.02 0.01 0.01 0.01 0.00 0.00 0.00 0.01 0.00 0.00 0.01 0.01 0.01 0.01 0.01 0.00
0.00 0.00 0.00 0.00 0.00 0.00 0.00 0.00 0.00 0.00 0.00 0.00 0.00 0.00 0.01 0.04 0.06 0.08 0.09 0.08 0.09 0.14 0.21 0.25 0.23 0.17 0.12 0.07 0.03 0.03 0.03 0.02 0.01 0.01 0.01 0.00 0.00 0.00 0.01 0.01 0.01 0.01 0.00
0.00 0.00 0.00 0.00 0.00 0.00 0.00 0.00 0.00 0.00 0.00 0.00 0.00 0.00 0.00 0.01 0.03 0.04 0.07 0.07 0.08 0.11 0.14 0.20 0.22 0.20 0.17 0.12 0.08 0.05 0.04 0.02 0.02 0.02 0.01 0.00 0.00 0.00 0.00 0.00 0.00 0.00 0.00
0.00 0.00 0.00 0.00 0.00 0.00 0.00 0.00 0.00 0.00 0.00 0.00 0.00 0.00 0.00 0.00 0.01 0.02 0.05 0.08 0.07 0.08 0.10 0.17 0.24 0.26 0.22 0.18 0.14 0.09 0.05 0.03 0.02 0.02 0.02 0.02 0.01 0.00 0.00 0.00 0.00 0.00 0.00
0.00 0.00 0.00 0.00 0.00 0.00 0.00 0.00 0.00 0.00 0.00 0.00 0.00 0.00 0.00 0.00 0.00 0.01 0.02 0.04 0.06 0.06 0.07 0.13 0.21 0.27 0.27 0.24 0.21 0.15 0.10 0.06 0.05 0.06 0.04 0.04 0.02 0.01 0.00 0.00 0.00 0.00 0.00
0.00 0.00 0.00 0.00 0.00 0.00 0.00 0.00 0.00 0.00 0.00 0.00 0.00 0.00 0.00 0.00 0.00 0.01 0.01 0.01 0.03 0.05 0.05 0.07 0.12 0.20 0.27 0.28 0.25 0.24 0.20 0.13 0.07 0.06 0.05 0.04 0.03 0.02 0.00 0.00 0.00 0.00 0.00
0.00 0.00 0.00 0.00 0.00 0.00 0.00 0.00 0.00 0.00 0.00 0.00 0.00 0.00 0.00 0.00 0.00 0.00 0.01 0.01 0.02 0.02 0.03 0.05 0.07 0.13 0.22 0.29 0.27 0.26 0.22 0.18 0.13 0.08 0.04 0.04 0.04 0.03 0.02 0.01 0.00 0.00 0.00
0.00 0.00 0.00 0.00 0.00 0.00 0.00 0.00 0.00 0.00 0.00 0.00 0.00 0.00 0.00 0.00 0.00 0.00 0.00 0.01 0.01 0.02 0.02 0.02 0.04 0.08 0.14 0.22 0.26 0.22 0.18 0.15 0.17 0.15 0.10 0.06 0.06 0.04 0.03 0.03 0.01 0.01 0.01
0.00 0.00 0.00 0.00 0.00 0.00 0.00 0.00 0.00 0.00 0.00 0.00 0.00 0.00 0.01 0.01 0.01 0.01 0.01 0.01 0.02 0.02 0.02 0.02 0.04 0.06 0.08 0.12 0.20 0.25 0.22 0.18 0.14 0.14 0.14 0.11 0.07 0.05 0.04 0.04 0.04 0.03 0.02
0.00 0.00 0.00 0.00 0.00 0.00 0.00 0.00 0.00 0.00 0.00 0.00 0.01 0.01 0.01 0.01 0.02 0.02 0.02 0.02 0.02 0.02 0.03 0.03 0.03 0.05 0.07 0.10 0.14 0.20 0.22 0.22 0.18 0.14 0.11 0.12 0.12 0.09 0.08 0.06 0.05 0.04 0.04

GEFSSE_prec_meanprec_060.txt.gz
QPF
0.00 0.01 0.02 0.02 0.03 0.03 0.04 0.03 0.03 0.03 0.03 0.02 0.01 0.01 0.01 0.01 0.01 0.00 0.00 0.00 0.00 0.00 0.01 0.01 0.00 0.00 0.00 0.01 0.01 0.01 0.01 0.01 0.01 0.01 0.00 0.00 0.01 0.01 0.01 0.01 0.02 0.03 0.04
0.00 0.01 0.02 0.02 0.02 0.02 0.04 0.04 0.04 0.03 0.03 0.02 0.02 0.02 0.01 0.01 0.00 0.00 0.00 0.00 0.00 0.00 0.00 0.01 0.01 0.00 0.00 0.00 0.02 0.03 0.02 0.03 0.02 0.02 0.01 0.01 0.01 0.01 0.00 0.01 0.02 0.05 0.05
0.00 0.01 0.01 0.02 0.02 0.03 0.04 0.04 0.04 0.04 0.03 0.02 0.01 0.01 0.01 0.01 0.00 0.00 0.00 0.00 0.00 0.00 0.00 0.00 0.01 0.00 0.01 0.01 0.02 0.04 0.05 0.05 0.04 0.03 0.02 0.03 0.02 0.01 0.01 0.02 0.03 0.05 0.06
0.00 0.01 0.02 0.05 0.06 0.06 0.07 0.06 0.07 0.08 0.07 0.06 0.04 0.04 0.03 0.02 0.01 0.00 0.00 0.00 0.00 0.00 0.00 0.00 0.00 0.00 0.01 0.02 0.02 0.03 0.05 0.05 0.06 0.03 0.02 0.01 0.01 0.02 0.02 0.03 0.05 0.05 0.05
0.01 0.02 0.06 0.12 0.11 0.11 0.12 0.12 0.13 0.12 0.11 0.10 0.07 0.05 0.04 0.03 0.02 0.01 0.01 0.01 0.00 0.00 0.00 0.00 0.00 0.01 0.01 0.01 0.02 0.03 0.05 0.07 0.07 0.03 0.02 0.01 0.04 0.04 0.03 0.03 0.05 0.05 0.06
0.04 0.06 0.10 0.15 0.16 0.15 0.14 0.14 0.13 0.14 0.12 0.10 0.08 0.06 0.04 0.04 0.03 0.02 0.02 0.01 0.01 0.00 0.01 0.00 0.00 0.01 0.01 0.01 0.02 0.03 0.06 0.10 0.07 0.04 0.03 0.02 0.05 0.04 0.03 0.03 0.05 0.06 0.06
0.08 0.08 0.10 0.17 0.20 0.19 0.16 0.15 0.15 0.15 0.14 0.12 0.09 0.07 0.06 0.05 0.04 0.03 0.02 0.01 0.01 0.01 0.01 0.01 0.01 0.01 0.01 0.01 0.01 0.02 0.06 0.09 0.07 0.05 0.03 0.03 0.03 0.03 0.03 0.04 0.05 0.06 0.08
0.11 0.10 0.10 0.16 0.20 0.19 0.20 0.18 0.18 0.18 0.16 0.14 0.14 0.12 0.11 0.09 0.07 0.05 0.03 0.03 0.02 0.01 0.01 0.01 0.01 0.01 0.02 0.01 0.01 0.02 0.05 0.08 0.07 0.05 0.03 0.03 0.03 0.02 0.03 0.04 0.05 0.05 0.04
0.18 0.15 0.13 0.16 0.17 0.16 0.18 0.18 0.21 0.23 0.22 0.20 0.18 0.17 0.16 0.15 0.12 0.10 0.07 0.05 0.03 0.01 0.01 0.02 0.02 0.02 0.02 0.02 0.02 0.02 0.04 0.05 0.09 0.08 0.02 0.03 0.03 0.02 0.02 0.03 0.05 0.05 0.05
0.23 0.21 0.22 0.27 0.27 0.26 0.26 0.25 0.27 0.32 0.31 0.29 0.23 0.21 0.20 0.17 0.14 0.14 0.11 0.08 0.05 0.03 0.02 0.03 0.03 0.03 0.03 0.03 0.02 0.02 0.04 0.04 0.07 0.06 0.05 0.03 0.03 0.02 0.01 0.02 0.04 0.04 0.04
0.17 0.19 0.23 0.23 0.22 0.23 0.22 0.25 0.28 0.33 0.36 0.36 0.31 0.26 0.24 0.17 0.13 0.14 0.11 0.12 0.10 0.07 0.05 0.04 0.03 0.02 0.03 0.02 0.02 0.02 0.02 0.03 0.07 0.08 0.07 0.03 0.04 0.02 0.01 0.01 0.02 0.03 0.04
0.06 0.06 0.07 0.07 0.07 0.09 0.12 0.15 0.17 0.20 0.26 0.32 0.32 0.30 0.29 0.24 0.20 0.14 0.12 0.15 0.16 0.13 0.10 0.07 0.05 0.03 0.02 0.02 0.01 0.01 0.01 0.03 0.03 0.07 0.05 0.04 0.07 0.04 0.01 0.01 0.02 0.03 0.03
0.01 0.02 0.03 0.03 0.03 0.04 0.05 0.06 0.07 0.10 0.14 0.17 0.22 0.28 0.27 0.26 0.24 0.23 0.21 0.20 0.19 0.17 0.16 0.14 0.10 0.06 0.03 0.02 0.02 0.00 0.01 0.01 0.01 0.03 0.02 0.04 0.09 0.07 0.03 0.02 0.01 0.02 0.03
0.00 0.00 0.01 0.01 0.01 0.01 0.02 0.02 0.03 0.05 0.08 0.11 0.12 0.15 0.17 0.17 0.18 0.25 0.30 0.30 0.26 0.21 0.21 0.19 0.14 0.10 0.05 0.02 0.01 0.00 0.00 0.01 0.02 0.02 0.03 0.02 0.06 0.07 0.05 0.03 0.01 0.01 0.02
0.00 0.00 0.00 0.00 0.01 0.01 0.01 0.01 0.01 0.02 0.03 0.04 0.06 0.08 0.11 0.12 0.14 0.17 0.21 0.26 0.25 0.22 0.21 0.21 0.20 0.16 0.09 0.04 0.02 0.01 0.00 0.01 0.01 0.01 0.03 0.02 0.03 0.06 0.06 0.03 0.02 0.01 0.01
0.00 0.00 0.00 0.00 0.00 0.00 0.00 0.00 0.01 0.01 0.01 0.02 0.03 0.04 0.05 0.06 0.09 0.11 0.12 0.14 0.15 0.17 0.22 0.27 0.25 0.21 0.15 0.08 0.03 0.01 0.01 0.00 0.00 0.00 0.01 0.01 0.01 0.02 0.04 0.03 0.02 0.01 0.01
0.00 0.00 0.00 0.00 0.00 0.00 0.00 0.00 0.00 0.00 0.01 0.01 0.01 0.02 0.03 0.03 0.05 0.08 0.08 0.10 0.11 0.13 0.16 0.21 0.23 0.22 0.16 0.08 0.04 0.02 0.01 0.00 0.00 0.00 0.00 0.01 0.01 0.01 0.02 0.02 0.02 0.02 0.02
0.00 0.00 0.00 0.00 0.00 0.00 0.00 0.00 0.00 0.00 0.00 0.00 0.00 0.01 0.02 0.02 0.02 0.03 0.05 0.08 0.10 0.10 0.11 0.14 0.18 0.20 0.18 0.13 0.08 0.04 0.02 0.02 0.01 0.00 0.00 0.00 0.01 0.02 0.03 0.01 0.01 0.01 0.02
0.00 0.00 0.00 0.00 0.00 0.00 0.00 0.00 0.00 0.00 0.00 0.00 0.00 0.01 0.01 0.01 0.01 0.02 0.03 0.06 0.08 0.09 0.09 0.09 0.12 0.14 0.16 0.16 0.15 0.11 0.06 0.04 0.04 0.01 0.00 0.00 0.00 0.01 0.02 0.02 0.01 0.01 0.01
0.00 0.00 0.00 0.00 0.00 0.00 0.00 0.00 0.00 0.00 0.00 0.00 0.01 0.01 0.01 0.01 0.01 0.01 0.02 0.03 0.05 0.07 0.07 0.08 0.12 0.13 0.12 0.14 0.18 0.15 0.10 0.05 0.03 0.02 0.01 0.00 0.00 0.00 0.00 0.01 0.01 0.01 0.00
0.00 0.00 0.00 0.00 0.00 0.00 0.00 0.00 0.00 0.00 0.01 0.01 0.01 0.01 0.01 0.01 0.01 0.01 0.01 0.01 0.02 0.04 0.06 0.08 0.11 0.13 0.13 0.13 0.15 0.14 0.11 0.07 0.04 0.02 0.01 0.01 0.00 0.01 0.01 0.02 0.02 0.01 0.00
0.00 0.00 0.00 0.00 0.00 0.00 0.00 0.00 0.00 0.00 0.01 0.01 0.01 0.01 0.01 0.00 0.01 0.01 0.01 0.01 0.01 0.02 0.03 0.05 0.07 0.08 0.12 0.17 0.17 0.18 0.15 0.10 0.06 0.03 0.02 0.02 0.01 0.02 0.02 0.01 0.01 0.00 0.00
0.00 0.00 0.00 0.00 0.00 0.00 0.00 0.00 0.00 0.01 0.01 0.01 0.01 0.01 0.01 0.01 0.01 0.01 0.01 0.01 0.02 0.02 0.02 0.04 0.06 0.06 0.07 0.11 0.18 0.22 0.17 0.12 0.09 0.05 0.04 0.03 0.03 0.04 0.02 0.01 0.00 0.00 0.00
0.00 0.00 0.00 0.00 0.00 0.00 0.00 0.00 0.01 0.01 0.01 0.01 0.01 0.01 0.01 0.01 0.01 0.01 0.01 0.02 0.02 0.03 0.03 0.03 0.05 0.06 0.07 0.08 0.11 0.17 0.16 0.14 0.16 0.13 0.06 0.04 0.04 0.06 0.05 0.02 0.00 0.00 0.00
0.00 0.00 0.00 0.00 0.00 0.00 0.00 0.00 0.00 0.00 0.01 0.01 0.01 0.01 0.01 0.01 0.01 0.01 0.01 0.02 0.03 0.03 0.04 0.04 0.05 0.06 0.07 0.07 0.08 0.12 0.12 0.12 0.12 0.14 0.13 0.09 0.06 0.06 0.05 0.04 0.03 0.02 0.01
0.00 0.00 0.00 0.00 0.00 0.00 0.00 0.00 0.00 0.00 0.00 0.00 0.00 0.00 0.01 0.01 0.01 0.01 0.01 0.01 0.02 0.02 0.03 0.04 0.05 0.05 0.07 0.08 0.08 0.10 0.13 0.13 0.12 0.13 0.13 0.11 0.11 0.09 0.08 0.07 0.05 0.05 0.03

GEFSSE_prec_meanprec_066.txt.gz
QPF
0.06 0.01 0.01 0.01 0.01 0.01 0.01 0.02 0.03 0.03 0.03 0.04 0.04 0.03 0.02 0.01 0.01 0.02 0.01 0.00 0.00 0.00 0.01 0.01 0.01 0.00 0.00 0.00 0.00 0.00 0.01 0.01 0.01 0.01 0.00 0.00 0.00 0.01 0.02 0.03 0.09 0.13 0.05
0.05 0.02 0.02 0.01 0.01 0.01 0.01 0.02 0.02 0.02 0.02 0.03 0.03 0.03 0.02 0.01 0.01 0.01 0.01 0.00 0.01 0.01 0.01 0.01 0.01 0.00 0.01 0.01 0.01 0.02 0.01 0.01 0.01 0.01 0.02 0.04 0.02 0.01 0.02 0.04 0.12 0.14 0.04
0.03 0.03 0.03 0.04 0.03 0.03 0.03 0.03 0.03 0.04 0.04 0.04 0.05 0.05 0.04 0.02 0.02 0.01 0.01 0.01 0.01 0.01 0.01 0.01 0.01 0.01 0.01 0.01 0.01 0.02 0.02 0.01 0.01 0.02 0.08 0.23 0.14 0.02 0.02 0.03 0.04 0.03 0.03
0.02 0.04 0.10 0.10 0.07 0.06 0.07 0.07 0.08 0.09 0.09 0.10 0.10 0.09 0.09 0.07 0.04 0.02 0.02 0.01 0.01 0.02 0.02 0.01 0.01 0.01 0.01 0.01 0.01 0.02 0.02 0.01 0.02 0.03 0.13 0.20 0.19 0.07 0.02 0.02 0.02 0.03 0.04
0.04 0.05 0.11 0.09 0.07 0.07 0.07 0.07 0.08 0.08 0.09 0.11 0.11 0.11 0.12 0.09 0.07 0.05 0.03 0.02 0.01 0.02 0.02 0.02 0.01 0.01 0.01 0.01 0.02 0.02 0.02 0.02 0.03 0.04 0.09 0.14 0.22 0.09 0.03 0.03 0.03 0.02 0.03
0.05 0.05 0.07 0.04 0.05 0.06 0.06 0.07 0.07 0.07 0.08 0.09 0.08 0.09 0.09 0.08 0.07 0.06 0.05 0.03 0.03 0.03 0.02 0.02 0.01 0.01 0.01 0.01 0.01 0.01 0.01 0.02 0.05 0.09 0.09 0.13 0.20 0.07 0.03 0.04 0.04 0.04 0.04
0.06 0.05 0.04 0.03 0.04 0.05 0.06 0.07 0.07 0.06 0.07 0.07 0.08 0.09 0.08 0.07 0.08 0.07 0.05 0.05 0.04 0.04 0.03 0.03 0.03 0.02 0.01 0.01 0.01 0.02 0.02 0.02 0.05 0.12 0.10 0.14 0.14 0.04 0.02 0.02 0.03 0.05 0.05
0.03 0.03 0.02 0.02 0.03 0.03 0.05 0.06 0.07 0.08 0.08 0.08 0.08 0.08 0.07 0.07 0.07 0.06 0.05 0.05 0.05 0.04 0.04 0.04 0.03 0.02 0.01 0.01 0.01 0.02 0.03 0.02 0.04 0.09 0.09 0.12 0.09 0.04 0.01 0.01 0.02 0.03 0.04
0.02 0.01 0.01 0.02 0.02 0.03 0.03 0.04 0.05 0.07 0.11 0.12 0.11 0.11 0.09 0.08 0.07 0.05 0.05 0.05 0.04 0.04 0.04 0.03 0.03 0.01 0.01 0.00 0.01 0.01 0.03 0.02 0.04 0.07 0.09 0.13 0.07 0.02 0.01 0.00 0.01 0.03 0.04
0.01 0.01 0.01 0.01 0.01 0.02 0.04 0.03 0.04 0.06 0.08 0.10 0.10 0.10 0.10 0.10 0.09 0.08 0.07 0.06 0.06 0.05 0.05 0.05 0.03 0.02 0.01 0.00 0.00 0.01 0.02 0.01 0.03 0.06 0.08 0.10 0.04 0.01 0.01 0.00 0.01 0.02 0.03
0.01 0.01 0.01 0.01 0.01 0.01 0.01 0.03 0.05 0.06 0.08 0.09 0.11 0.11 0.11 0.09 0.13 0.17 0.15 0.14 0.12 0.10 0.08 0.07 0.05 0.03 0.02 0.01 0.01 0.01 0.01 0.01 0.05 0.05 0.09 0.08 0.03 0.01 0.00 0.01 0.00 0.01 0.02
0.00 0.01 0.00 0.00 0.01 0.01 0.01 0.01 0.02 0.03 0.06 0.08 0.11 0.11 0.12 0.13 0.14 0.16 0.19 0.19 0.19 0.16 0.11 0.08 0.07 0.04 0.02 0.01 0.03 0.02 0.00 0.01 0.03 0.03 0.05 0.04 0.03 0.01 0.01 0.02 0.01 0.01 0.01
0.00 0.00 0.00 0.00 0.01 0.01 0.01 0.02 0.02 0.02 0.04 0.07 0.08 0.10 0.13 0.15 0.14 0.14 0.18 0.21 0.21 0.19 0.15 0.14 0.10 0.06 0.04 0.03 0.06 0.03 0.01 0.01 0.03 0.02 0.06 0.04 0.03 0.02 0.01 0.02 0.01 0.01 0.01
0.00 0.00 0.00 0.00 0.00 0.00 0.01 0.01 0.01 0.02 0.03 0.03 0.05 0.06 0.10 0.14 0.14 0.13 0.15 0.19 0.25 0.24 0.26 0.29 0.24 0.16 0.08 0.06 0.05 0.04 0.03 0.02 0.02 0.04 0.08 0.04 0.02 0.02 0.01 0.01 0.01 0.01 0.01
0.00 0.00 0.00 0.00 0.00 0.00 0.00 0.00 0.00 0.01 0.01 0.02 0.03 0.03 0.06 0.10 0.12 0.12 0.14 0.19 0.21 0.24 0.26 0.27 0.24 0.20 0.15 0.09 0.09 0.07 0.06 0.03 0.01 0.02 0.06 0.02 0.01 0.02 0.01 0.01 0.01 0.02 0.01
0.00 0.00 0.00 0.00 0.00 0.00 0.00 0.00 0.00 0.00 0.00 0.01 0.01 0.02 0.03 0.05 0.08 0.11 0.12 0.16 0.18 0.20 0.26 0.28 0.23 0.21 0.17 0.12 0.10 0.10 0.05 0.03 0.02 0.01 0.03 0.01 0.00 0.01 0.01 0.02 0.01 0.01 0.01
0.00 0.00 0.00 0.00 0.00 0.00 0.00 0.00 0.00 0.00 0.00 0.00 0.00 0.01 0.02 0.04 0.05 0.07 0.09 0.12 0.15 0.19 0.22 0.27 0.25 0.27 0.22 0.17 0.12 0.09 0.05 0.03 0.02 0.01 0.01 0.02 0.01 0.01 0.00 0.01 0.01 0.01 0.01
0.00 0.00 0.00 0.00 0.00 0.00 0.00 0.00 0.00 0.00 0.00 0.00 0.00 0.01 0.01 0.02 0.03 0.04 0.05 0.08 0.11 0.15 0.19 0.22 0.28 0.31 0.27 0.25 0.20 0.12 0.06 0.04 0.02 0.01 0.02 0.03 0.02 0.02 0.01 0.00 0.00 0.00 0.00
0.00 0.00 0.00 0.00 0.00 0.00 0.00 0.00 0.00 0.00 0.01 0.02 0.02 0.02 0.01 0.01 0.02 0.03 0.05 0.06 0.08 0.10 0.13 0.17 0.23 0.26 0.27 0.23 0.21 0.18 0.11 0.08 0.05 0.02 0.02 0.04 0.03 0.02 0.03 0.02 0.00 0.00 0.00
0.00 0.00 0.00 0.00 0.00 0.01 0.01 0.01 0.01 0.02 0.03 0.04 0.05 0.05 0.03 0.02 0.02 0.03 0.03 0.04 0.06 0.08 0.10 0.14 0.18 0.20 0.22 0.23 0.22 0.20 0.17 0.11 0.07 0.05 0.03 0.03 0.04 0.05 0.05 0.04 0.02 0.01 0.00
0.00 0.00 0.00 0.00 0.01 0.01 0.02 0.01 0.02 0.02 0.03 0.05 0.04 0.04 0.04 0.03 0.03 0.03 0.03 0.03 0.05 0.06 0.07 0.10 0.14 0.16 0.17 0.20 0.20 0.18 0.18 0.16 0.11 0.08 0.05 0.03 0.04 0.05 0.07 0.09 0.06 0.02 0.00
0.00 0.00 0.00 0.00 0.01 0.01 0.02 0.02 0.02 0.02 0.02 0.03 0.02 0.03 0.03 0.04 0.04 0.03 0.04 0.04 0.04 0.05 0.04 0.06 0.11 0.13 0.13 0.18 0.19 0.18 0.15 0.15 0.11 0.06 0.05 0.03 0.04 0.03 0.04 0.08 0.09 0.04 0.01
0.00 0.00 0.00 0.00 0.01 0.01 0.02 0.03 0.02 0.03 0.03 0.03 0.03 0.03 0.03 0.03 0.04 0.04 0.04 0.05 0.05 0.06 0.06 0.06 0.08 0.10 0.11 0.13 0.17 0.19 0.14 0.13 0.14 0.08 0.05 0.03 0.04 0.05 0.06 0.06 0.08 0.06 0.04
0.00 0.00 0.00 0.00 0.00 0.01 0.01 0.02 0.02 0.03 0.03 0.02 0.02 0.02 0.02 0.02 0.03 0.03 0.03 0.04 0.05 0.07 0.07 0.07 0.09 0.11 0.11 0.10 0.13 0.13 0.13 0.13 0.14 0.11 0.08 0.04 0.03 0.04 0.05 0.06 0.07 0.08 0.07
0.00 0.00 0.00 0.00 0.00 0.00 0.01 0.01 0.01 0.01 0.01 0.01 0.00 0.01 0.01 0.02 0.02 0.02 0.02 0.02 0.04 0.05 0.06 0.07 0.10 0.12 0.12 0.10 0.10 0.11 0.11 0.11 0.09 0.10 0.09 0.06 0.04 0.03 0.03 0.05 0.08 0.09 0.10
0.00 0.00 0.00 0.00 0.00 0.00 0.00 0.00 0.00 0.00 0.00 0.00 0.00 0.00 0.01 0.02 0.02 0.02 0.02 0.02 0.02 0.03 0.04 0.04 0.07 0.10 0.12 0.12 0.12 0.11 0.10 0.08 0.07 0.07 0.07 0.08 0.07 0.05 0.04 0.04 0.06 0.08 0.09